<?xml version="1.0" encoding="UTF-8" standalone="no" ?>
<gpx xmlns="http://www.topografix.com/GPX/1/1" xmlns:xsi="http://www.w3.org/2001/XMLSchema-instance" xsi:schemaLocation="http://www.topografix.com/GPX/1/1 http://www.topografix.com/GPX/1/1/gpx.xsd" version="1.1" creator="VisuGPX - https://www.visugpx.com">
  <metadata>
    <name>Parcours VTT FFC Saillans</name>
  </metadata>
  <trk>
    <name><![CDATA[VTT N°8 noir - Balcons de la Drôme - 39 km - Déniv 950 m]]></name>
    <extensions>
      <line xmlns="http://www.topografix.com/GPX/gpx_style/0/2">
        <color>000000</color>
        <width>4</width>
      </line>
    </extensions>
    <trkseg>
      <trkpt lat="44.69691" lon="5.1997">
        <ele>268</ele>
        <time>2022-11-17T10:28:38Z</time>
        <extensions>
          <visugpx:TrkExtension xmlns:visugpx="https://www.visugpx.com/editgpx/">
            <visugpx:node>1</visugpx:node>
            </visugpx:TrkExtension>
        </extensions>
      </trkpt>
      <trkpt lat="44.69682" lon="5.20003">
        <ele>268</ele>
        <time>2022-11-17T10:28:38Z</time>
      </trkpt>
      <trkpt lat="44.69677" lon="5.20077">
        <ele>268</ele>
      </trkpt>
      <trkpt lat="44.69672" lon="5.20151">
        <ele>267</ele>
        <time>2022-11-17T10:28:38Z</time>
      </trkpt>
      <trkpt lat="44.69677" lon="5.20226">
        <ele>267</ele>
      </trkpt>
      <trkpt lat="44.69681" lon="5.203">
        <ele>269</ele>
        <time>2022-11-17T10:28:38Z</time>
      </trkpt>
      <trkpt lat="44.69677" lon="5.2032">
        <ele>271</ele>
        <time>2022-11-17T10:28:38Z</time>
      </trkpt>
      <trkpt lat="44.6967" lon="5.20338">
        <ele>272</ele>
        <time>2022-11-17T10:28:38Z</time>
      </trkpt>
      <trkpt lat="44.69633" lon="5.2039">
        <ele>273</ele>
        <time>2022-11-17T10:28:38Z</time>
      </trkpt>
      <trkpt lat="44.69609" lon="5.2041">
        <ele>273</ele>
        <time>2022-11-17T10:28:38Z</time>
      </trkpt>
      <trkpt lat="44.69512" lon="5.20463">
        <ele>272</ele>
      </trkpt>
      <trkpt lat="44.69414" lon="5.20515">
        <ele>272</ele>
        <time>2022-11-17T10:28:38Z</time>
      </trkpt>
      <trkpt lat="44.69316" lon="5.20522">
        <ele>273</ele>
        <time>2022-11-17T10:28:38Z</time>
      </trkpt>
      <trkpt lat="44.69299" lon="5.20513">
        <ele>274</ele>
        <time>2022-11-17T10:28:38Z</time>
      </trkpt>
      <trkpt lat="44.69342" lon="5.2041">
        <ele>270</ele>
      </trkpt>
      <trkpt lat="44.69384" lon="5.20308">
        <ele>271</ele>
      </trkpt>
      <trkpt lat="44.69427" lon="5.20205">
        <ele>273</ele>
      </trkpt>
      <trkpt lat="44.69469" lon="5.20102">
        <ele>274</ele>
        <time>2022-11-17T10:28:38Z</time>
      </trkpt>
      <trkpt lat="44.69485" lon="5.20101">
        <ele>275</ele>
        <time>2022-11-17T10:28:38Z</time>
      </trkpt>
      <trkpt lat="44.69496" lon="5.20092">
        <ele>275</ele>
        <time>2022-11-17T10:28:38Z</time>
      </trkpt>
      <trkpt lat="44.69509" lon="5.20065">
        <ele>275</ele>
        <time>2022-11-17T10:28:38Z</time>
      </trkpt>
      <trkpt lat="44.69511" lon="5.20049">
        <ele>276</ele>
        <time>2022-11-17T10:28:38Z</time>
      </trkpt>
      <trkpt lat="44.69509" lon="5.20035">
        <ele>276</ele>
        <time>2022-11-17T10:28:38Z</time>
      </trkpt>
      <trkpt lat="44.695" lon="5.20007">
        <ele>276</ele>
        <time>2022-11-17T10:28:38Z</time>
      </trkpt>
      <trkpt lat="44.6949" lon="5.19994">
        <ele>276</ele>
        <time>2022-11-17T10:28:38Z</time>
      </trkpt>
      <trkpt lat="44.69477" lon="5.19969">
        <ele>277</ele>
        <time>2022-11-17T10:28:38Z</time>
      </trkpt>
      <trkpt lat="44.69475" lon="5.19957">
        <ele>277</ele>
        <time>2022-11-17T10:28:38Z</time>
      </trkpt>
      <trkpt lat="44.69473" lon="5.19924">
        <ele>277</ele>
        <time>2022-11-17T10:28:38Z</time>
      </trkpt>
      <trkpt lat="44.69467" lon="5.1991">
        <ele>278</ele>
        <time>2022-11-17T10:28:38Z</time>
      </trkpt>
      <trkpt lat="44.69425" lon="5.19877">
        <ele>279</ele>
        <time>2022-11-17T10:28:38Z</time>
      </trkpt>
      <trkpt lat="44.69343" lon="5.19851">
        <ele>282</ele>
        <time>2022-11-17T10:28:38Z</time>
      </trkpt>
      <trkpt lat="44.69244" lon="5.19842">
        <ele>286</ele>
      </trkpt>
      <trkpt lat="44.69144" lon="5.19833">
        <ele>290</ele>
        <time>2022-11-17T10:28:38Z</time>
      </trkpt>
      <trkpt lat="44.69134" lon="5.19828">
        <ele>292</ele>
        <time>2022-11-17T10:28:38Z</time>
      </trkpt>
      <trkpt lat="44.6903" lon="5.19826">
        <ele>296</ele>
        <time>2022-11-17T10:28:38Z</time>
      </trkpt>
      <trkpt lat="44.69019" lon="5.19821">
        <ele>298</ele>
        <time>2022-11-17T10:28:38Z</time>
      </trkpt>
      <trkpt lat="44.69003" lon="5.19808">
        <ele>300</ele>
        <time>2022-11-17T10:28:38Z</time>
      </trkpt>
      <trkpt lat="44.68957" lon="5.19813">
        <ele>301</ele>
        <time>2022-11-17T10:28:38Z</time>
      </trkpt>
      <trkpt lat="44.68905" lon="5.19797">
        <ele>304</ele>
      </trkpt>
      <trkpt lat="44.68853" lon="5.19781">
        <ele>306</ele>
      </trkpt>
      <trkpt lat="44.68801" lon="5.19764">
        <ele>309</ele>
      </trkpt>
      <trkpt lat="44.68749" lon="5.19748">
        <ele>311</ele>
      </trkpt>
      <trkpt lat="44.68696" lon="5.19732">
        <ele>313</ele>
      </trkpt>
      <trkpt lat="44.68644" lon="5.19716">
        <ele>315</ele>
      </trkpt>
      <trkpt lat="44.68592" lon="5.197">
        <ele>317</ele>
      </trkpt>
      <trkpt lat="44.6854" lon="5.19683">
        <ele>319</ele>
      </trkpt>
      <trkpt lat="44.68488" lon="5.19667">
        <ele>321</ele>
      </trkpt>
      <trkpt lat="44.68436" lon="5.19651">
        <ele>323</ele>
      </trkpt>
      <trkpt lat="44.68384" lon="5.19635">
        <ele>325</ele>
      </trkpt>
      <trkpt lat="44.68332" lon="5.19619">
        <ele>326</ele>
      </trkpt>
      <trkpt lat="44.68279" lon="5.19603">
        <ele>328</ele>
      </trkpt>
      <trkpt lat="44.68227" lon="5.19586">
        <ele>332</ele>
      </trkpt>
      <trkpt lat="44.68175" lon="5.1957">
        <ele>334</ele>
      </trkpt>
      <trkpt lat="44.68123" lon="5.19554">
        <ele>334</ele>
        <time>2022-11-17T10:28:38Z</time>
      </trkpt>
      <trkpt lat="44.68034" lon="5.19496">
        <ele>336</ele>
      </trkpt>
      <trkpt lat="44.67945" lon="5.19439">
        <ele>338</ele>
        <time>2022-11-17T10:28:38Z</time>
      </trkpt>
      <trkpt lat="44.67926" lon="5.19437">
        <ele>339</ele>
        <time>2022-11-17T10:28:38Z</time>
      </trkpt>
      <trkpt lat="44.67862" lon="5.19458">
        <ele>340</ele>
      </trkpt>
      <trkpt lat="44.67798" lon="5.19479">
        <ele>341</ele>
      </trkpt>
      <trkpt lat="44.67734" lon="5.19499">
        <ele>342</ele>
      </trkpt>
      <trkpt lat="44.6767" lon="5.1952">
        <ele>344</ele>
        <time>2022-11-17T10:28:38Z</time>
      </trkpt>
      <trkpt lat="44.67582" lon="5.1952">
        <ele>351</ele>
        <time>2022-11-17T10:28:38Z</time>
      </trkpt>
      <trkpt lat="44.6757" lon="5.19527">
        <ele>355</ele>
        <time>2022-11-17T10:28:38Z</time>
      </trkpt>
      <trkpt lat="44.67563" lon="5.19534">
        <ele>357</ele>
        <time>2022-11-17T10:28:38Z</time>
      </trkpt>
      <trkpt lat="44.67556" lon="5.19547">
        <ele>359</ele>
        <time>2022-11-17T10:28:38Z</time>
      </trkpt>
      <trkpt lat="44.67548" lon="5.19581">
        <ele>359</ele>
        <time>2022-11-17T10:28:38Z</time>
      </trkpt>
      <trkpt lat="44.6754" lon="5.19591">
        <ele>359</ele>
        <time>2022-11-17T10:28:38Z</time>
      </trkpt>
      <trkpt lat="44.67492" lon="5.19629">
        <ele>360</ele>
        <time>2022-11-17T10:28:38Z</time>
      </trkpt>
      <trkpt lat="44.67453" lon="5.19634">
        <ele>361</ele>
        <time>2022-11-17T10:28:38Z</time>
      </trkpt>
      <trkpt lat="44.67438" lon="5.19628">
        <ele>362</ele>
        <time>2022-11-17T10:28:38Z</time>
      </trkpt>
      <trkpt lat="44.67424" lon="5.19628">
        <ele>363</ele>
        <time>2022-11-17T10:28:38Z</time>
      </trkpt>
      <trkpt lat="44.67407" lon="5.1964">
        <ele>363</ele>
        <time>2022-11-17T10:28:38Z</time>
      </trkpt>
      <trkpt lat="44.67391" lon="5.19661">
        <ele>364</ele>
        <time>2022-11-17T10:28:38Z</time>
      </trkpt>
      <trkpt lat="44.67386" lon="5.19674">
        <ele>365</ele>
        <time>2022-11-17T10:28:38Z</time>
      </trkpt>
      <trkpt lat="44.6738" lon="5.19712">
        <ele>366</ele>
        <time>2022-11-17T10:28:38Z</time>
      </trkpt>
      <trkpt lat="44.6736" lon="5.19747">
        <ele>368</ele>
        <time>2022-11-17T10:28:38Z</time>
      </trkpt>
      <trkpt lat="44.67349" lon="5.19818">
        <ele>373</ele>
        <time>2022-11-17T10:28:38Z</time>
      </trkpt>
      <trkpt lat="44.67343" lon="5.19827">
        <ele>373</ele>
        <time>2022-11-17T10:28:38Z</time>
      </trkpt>
      <trkpt lat="44.6722" lon="5.19917">
        <ele>377</ele>
        <time>2022-11-17T10:28:38Z</time>
      </trkpt>
      <trkpt lat="44.672" lon="5.19945">
        <ele>378</ele>
        <time>2022-11-17T10:28:38Z</time>
      </trkpt>
      <trkpt lat="44.67143" lon="5.19974">
        <ele>382</ele>
        <time>2022-11-17T10:28:38Z</time>
      </trkpt>
      <trkpt lat="44.67103" lon="5.20019">
        <ele>385</ele>
        <time>2022-11-17T10:28:38Z</time>
      </trkpt>
      <trkpt lat="44.6708" lon="5.20061">
        <ele>388</ele>
        <time>2022-11-17T10:28:38Z</time>
      </trkpt>
      <trkpt lat="44.6707" lon="5.20093">
        <ele>390</ele>
        <time>2022-11-17T10:28:38Z</time>
      </trkpt>
      <trkpt lat="44.67063" lon="5.20105">
        <ele>391</ele>
        <time>2022-11-17T10:28:38Z</time>
      </trkpt>
      <trkpt lat="44.67056" lon="5.20109">
        <ele>392</ele>
        <time>2022-11-17T10:28:38Z</time>
      </trkpt>
      <trkpt lat="44.6703" lon="5.20117">
        <ele>394</ele>
        <time>2022-11-17T10:28:38Z</time>
      </trkpt>
      <trkpt lat="44.6702" lon="5.20127">
        <ele>395</ele>
        <time>2022-11-17T10:28:38Z</time>
      </trkpt>
      <trkpt lat="44.6701" lon="5.20128">
        <ele>396</ele>
        <time>2022-11-17T10:28:38Z</time>
      </trkpt>
      <trkpt lat="44.67003" lon="5.20133">
        <ele>397</ele>
        <time>2022-11-17T10:28:38Z</time>
      </trkpt>
      <trkpt lat="44.66993" lon="5.20144">
        <ele>398</ele>
        <time>2022-11-17T10:28:38Z</time>
      </trkpt>
      <trkpt lat="44.66965" lon="5.20214">
        <ele>398</ele>
        <time>2022-11-17T10:28:38Z</time>
      </trkpt>
      <trkpt lat="44.668" lon="5.20418">
        <ele>405</ele>
        <time>2022-11-17T10:28:38Z</time>
      </trkpt>
      <trkpt lat="44.66629" lon="5.2053">
        <ele>414</ele>
        <time>2022-11-17T10:28:38Z</time>
      </trkpt>
      <trkpt lat="44.66619" lon="5.20549">
        <ele>418</ele>
        <time>2022-11-17T10:28:38Z</time>
      </trkpt>
      <trkpt lat="44.66598" lon="5.20614">
        <ele>421</ele>
        <time>2022-11-17T10:28:38Z</time>
      </trkpt>
      <trkpt lat="44.66591" lon="5.20616">
        <ele>422</ele>
        <time>2022-11-17T10:28:38Z</time>
      </trkpt>
      <trkpt lat="44.66585" lon="5.20603">
        <ele>424</ele>
        <time>2022-11-17T10:28:38Z</time>
      </trkpt>
      <trkpt lat="44.66585" lon="5.20593">
        <ele>425</ele>
        <time>2022-11-17T10:28:38Z</time>
      </trkpt>
      <trkpt lat="44.66597" lon="5.20539">
        <ele>426</ele>
        <time>2022-11-17T10:28:38Z</time>
      </trkpt>
      <trkpt lat="44.66598" lon="5.20521">
        <ele>427</ele>
        <time>2022-11-17T10:28:38Z</time>
      </trkpt>
      <trkpt lat="44.66588" lon="5.20492">
        <ele>429</ele>
        <time>2022-11-17T10:28:38Z</time>
      </trkpt>
      <trkpt lat="44.66578" lon="5.20425">
        <ele>433</ele>
        <time>2022-11-17T10:28:38Z</time>
      </trkpt>
      <trkpt lat="44.66579" lon="5.20413">
        <ele>435</ele>
        <time>2022-11-17T10:28:38Z</time>
      </trkpt>
      <trkpt lat="44.66582" lon="5.20401">
        <ele>437</ele>
        <time>2022-11-17T10:28:38Z</time>
      </trkpt>
      <trkpt lat="44.66583" lon="5.20369">
        <ele>439</ele>
        <time>2022-11-17T10:28:38Z</time>
      </trkpt>
      <trkpt lat="44.66551" lon="5.20297">
        <ele>444</ele>
        <time>2022-11-17T10:28:38Z</time>
      </trkpt>
      <trkpt lat="44.66552" lon="5.20231">
        <ele>449</ele>
        <time>2022-11-17T10:28:38Z</time>
      </trkpt>
      <trkpt lat="44.66547" lon="5.2022">
        <ele>453</ele>
        <time>2022-11-17T10:28:38Z</time>
      </trkpt>
      <trkpt lat="44.66545" lon="5.20164">
        <ele>459</ele>
        <time>2022-11-17T10:28:38Z</time>
      </trkpt>
      <trkpt lat="44.66486" lon="5.20069">
        <ele>468</ele>
        <time>2022-11-17T10:28:38Z</time>
      </trkpt>
      <trkpt lat="44.66476" lon="5.20025">
        <ele>476</ele>
        <time>2022-11-17T10:28:38Z</time>
      </trkpt>
      <trkpt lat="44.66452" lon="5.20009">
        <ele>483</ele>
        <time>2022-11-17T10:28:38Z</time>
      </trkpt>
      <trkpt lat="44.66305" lon="5.19756">
        <ele>511</ele>
        <time>2022-11-17T10:28:38Z</time>
      </trkpt>
      <trkpt lat="44.6629" lon="5.19673">
        <ele>529</ele>
        <time>2022-11-17T10:28:38Z</time>
      </trkpt>
      <trkpt lat="44.66289" lon="5.19601">
        <ele>540</ele>
        <time>2022-11-17T10:28:38Z</time>
      </trkpt>
      <trkpt lat="44.6625" lon="5.19402">
        <ele>558</ele>
        <time>2022-11-17T10:28:38Z</time>
      </trkpt>
      <trkpt lat="44.66216" lon="5.19313">
        <ele>573</ele>
        <time>2022-11-17T10:28:38Z</time>
      </trkpt>
      <trkpt lat="44.66266" lon="5.19271">
        <ele>583</ele>
        <time>2022-11-17T10:28:38Z</time>
      </trkpt>
      <trkpt lat="44.6628" lon="5.19272">
        <ele>589</ele>
        <time>2022-11-17T10:28:38Z</time>
      </trkpt>
      <trkpt lat="44.66289" lon="5.19276">
        <ele>593</ele>
        <time>2022-11-17T10:28:38Z</time>
      </trkpt>
      <trkpt lat="44.66354" lon="5.19384">
        <ele>599</ele>
        <time>2022-11-17T10:28:38Z</time>
      </trkpt>
      <trkpt lat="44.66372" lon="5.19437">
        <ele>604</ele>
        <time>2022-11-17T10:28:38Z</time>
      </trkpt>
      <trkpt lat="44.66378" lon="5.19443">
        <ele>607</ele>
        <time>2022-11-17T10:28:38Z</time>
      </trkpt>
      <trkpt lat="44.66381" lon="5.19432">
        <ele>610</ele>
        <time>2022-11-17T10:28:38Z</time>
      </trkpt>
      <trkpt lat="44.66375" lon="5.19413">
        <ele>612</ele>
        <time>2022-11-17T10:28:38Z</time>
      </trkpt>
      <trkpt lat="44.66373" lon="5.19354">
        <ele>632</ele>
        <time>2022-11-17T10:28:38Z</time>
      </trkpt>
      <trkpt lat="44.66378" lon="5.19328">
        <ele>633</ele>
        <time>2022-11-17T10:28:38Z</time>
      </trkpt>
      <trkpt lat="44.66355" lon="5.19165">
        <ele>636</ele>
        <time>2022-11-17T10:28:38Z</time>
      </trkpt>
      <trkpt lat="44.66327" lon="5.19095">
        <ele>638</ele>
        <time>2022-11-17T10:28:38Z</time>
      </trkpt>
      <trkpt lat="44.66312" lon="5.19081">
        <ele>639</ele>
        <time>2022-11-17T10:28:38Z</time>
      </trkpt>
      <trkpt lat="44.66304" lon="5.19065">
        <ele>640</ele>
        <time>2022-11-17T10:28:38Z</time>
      </trkpt>
      <trkpt lat="44.66302" lon="5.19049">
        <ele>641</ele>
        <time>2022-11-17T10:28:38Z</time>
      </trkpt>
      <trkpt lat="44.66309" lon="5.18892">
        <ele>640</ele>
        <time>2022-11-17T10:28:38Z</time>
      </trkpt>
      <trkpt lat="44.66314" lon="5.18878">
        <ele>639</ele>
        <time>2022-11-17T10:28:38Z</time>
      </trkpt>
      <trkpt lat="44.66345" lon="5.18836">
        <ele>638</ele>
        <time>2022-11-17T10:28:38Z</time>
      </trkpt>
      <trkpt lat="44.6635" lon="5.18825">
        <ele>636</ele>
        <time>2022-11-17T10:28:38Z</time>
      </trkpt>
      <trkpt lat="44.6634" lon="5.18755">
        <ele>638</ele>
        <time>2022-11-17T10:28:38Z</time>
      </trkpt>
      <trkpt lat="44.66341" lon="5.18745">
        <ele>639</ele>
        <time>2022-11-17T10:28:38Z</time>
      </trkpt>
      <trkpt lat="44.66345" lon="5.18735">
        <ele>639</ele>
        <time>2022-11-17T10:28:38Z</time>
      </trkpt>
      <trkpt lat="44.66344" lon="5.18719">
        <ele>639</ele>
        <time>2022-11-17T10:28:38Z</time>
      </trkpt>
      <trkpt lat="44.66323" lon="5.18648">
        <ele>641</ele>
        <time>2022-11-17T10:28:38Z</time>
      </trkpt>
      <trkpt lat="44.66318" lon="5.18639">
        <ele>643</ele>
        <time>2022-11-17T10:28:38Z</time>
      </trkpt>
      <trkpt lat="44.66298" lon="5.18631">
        <ele>645</ele>
        <time>2022-11-17T10:28:38Z</time>
      </trkpt>
      <trkpt lat="44.66292" lon="5.18626">
        <ele>647</ele>
        <time>2022-11-17T10:28:38Z</time>
      </trkpt>
      <trkpt lat="44.66288" lon="5.18607">
        <ele>648</ele>
        <time>2022-11-17T10:28:38Z</time>
      </trkpt>
      <trkpt lat="44.66289" lon="5.18592">
        <ele>650</ele>
        <time>2022-11-17T10:28:38Z</time>
      </trkpt>
      <trkpt lat="44.66306" lon="5.18542">
        <ele>652</ele>
        <time>2022-11-17T10:28:38Z</time>
      </trkpt>
      <trkpt lat="44.66316" lon="5.18531">
        <ele>654</ele>
        <time>2022-11-17T10:28:38Z</time>
      </trkpt>
      <trkpt lat="44.66325" lon="5.1851">
        <ele>656</ele>
        <time>2022-11-17T10:28:38Z</time>
      </trkpt>
      <trkpt lat="44.66321" lon="5.18501">
        <ele>658</ele>
        <time>2022-11-17T10:28:38Z</time>
      </trkpt>
      <trkpt lat="44.66253" lon="5.18531">
        <ele>662</ele>
        <time>2022-11-17T10:28:38Z</time>
      </trkpt>
      <trkpt lat="44.66249" lon="5.18521">
        <ele>665</ele>
        <time>2022-11-17T10:28:38Z</time>
      </trkpt>
      <trkpt lat="44.66256" lon="5.18513">
        <ele>667</ele>
        <time>2022-11-17T10:28:38Z</time>
      </trkpt>
      <trkpt lat="44.66266" lon="5.18505">
        <ele>668</ele>
        <time>2022-11-17T10:28:38Z</time>
      </trkpt>
      <trkpt lat="44.66276" lon="5.18493">
        <ele>670</ele>
        <time>2022-11-17T10:28:38Z</time>
      </trkpt>
      <trkpt lat="44.66284" lon="5.18458">
        <ele>672</ele>
        <time>2022-11-17T10:28:38Z</time>
      </trkpt>
      <trkpt lat="44.66293" lon="5.1844">
        <ele>674</ele>
        <time>2022-11-17T10:28:38Z</time>
      </trkpt>
      <trkpt lat="44.66353" lon="5.18379">
        <ele>678</ele>
        <time>2022-11-17T10:28:38Z</time>
      </trkpt>
      <trkpt lat="44.66385" lon="5.18368">
        <ele>682</ele>
        <time>2022-11-17T10:28:38Z</time>
      </trkpt>
      <trkpt lat="44.6639" lon="5.18355">
        <ele>684</ele>
        <time>2022-11-17T10:28:38Z</time>
      </trkpt>
      <trkpt lat="44.66389" lon="5.18321">
        <ele>686</ele>
        <time>2022-11-17T10:28:38Z</time>
      </trkpt>
      <trkpt lat="44.66385" lon="5.18308">
        <ele>688</ele>
        <time>2022-11-17T10:28:38Z</time>
      </trkpt>
      <trkpt lat="44.66374" lon="5.18293">
        <ele>690</ele>
        <time>2022-11-17T10:28:38Z</time>
      </trkpt>
      <trkpt lat="44.6631" lon="5.18242">
        <ele>693</ele>
        <time>2022-11-17T10:28:38Z</time>
      </trkpt>
      <trkpt lat="44.66302" lon="5.18228">
        <ele>696</ele>
        <time>2022-11-17T10:28:38Z</time>
      </trkpt>
      <trkpt lat="44.66298" lon="5.18218">
        <ele>698</ele>
        <time>2022-11-17T10:28:38Z</time>
      </trkpt>
      <trkpt lat="44.66284" lon="5.18166">
        <ele>698</ele>
        <time>2022-11-17T10:28:38Z</time>
      </trkpt>
      <trkpt lat="44.66271" lon="5.18145">
        <ele>698</ele>
        <time>2022-11-17T10:28:38Z</time>
      </trkpt>
      <trkpt lat="44.66256" lon="5.1813">
        <ele>698</ele>
        <time>2022-11-17T10:28:38Z</time>
      </trkpt>
      <trkpt lat="44.66229" lon="5.1812">
        <ele>700</ele>
        <time>2022-11-17T10:28:38Z</time>
      </trkpt>
      <trkpt lat="44.66198" lon="5.18065">
        <ele>702</ele>
        <time>2022-11-17T10:28:38Z</time>
      </trkpt>
      <trkpt lat="44.66184" lon="5.18054">
        <ele>704</ele>
        <time>2022-11-17T10:28:38Z</time>
      </trkpt>
      <trkpt lat="44.66181" lon="5.18042">
        <ele>706</ele>
        <time>2022-11-17T10:28:38Z</time>
      </trkpt>
      <trkpt lat="44.66185" lon="5.1803">
        <ele>707</ele>
        <time>2022-11-17T10:28:38Z</time>
      </trkpt>
      <trkpt lat="44.66183" lon="5.18012">
        <ele>708</ele>
        <time>2022-11-17T10:28:38Z</time>
      </trkpt>
      <trkpt lat="44.66178" lon="5.17999">
        <ele>716</ele>
        <time>2022-11-17T10:28:38Z</time>
      </trkpt>
      <trkpt lat="44.66201" lon="5.17948">
        <ele>715</ele>
        <time>2022-11-17T10:28:38Z</time>
      </trkpt>
      <trkpt lat="44.66211" lon="5.17935">
        <ele>715</ele>
        <time>2022-11-17T10:28:38Z</time>
      </trkpt>
      <trkpt lat="44.66268" lon="5.17903">
        <ele>715</ele>
        <time>2022-11-17T10:28:38Z</time>
      </trkpt>
      <trkpt lat="44.66272" lon="5.17893">
        <ele>716</ele>
        <time>2022-11-17T10:28:38Z</time>
      </trkpt>
      <trkpt lat="44.66287" lon="5.17833">
        <ele>718</ele>
        <time>2022-11-17T10:28:38Z</time>
      </trkpt>
      <trkpt lat="44.6633" lon="5.1776">
        <ele>719</ele>
        <time>2022-11-17T10:28:38Z</time>
      </trkpt>
      <trkpt lat="44.66328" lon="5.17746">
        <ele>721</ele>
        <time>2022-11-17T10:28:38Z</time>
      </trkpt>
      <trkpt lat="44.66321" lon="5.17724">
        <ele>723</ele>
        <time>2022-11-17T10:28:38Z</time>
      </trkpt>
      <trkpt lat="44.66302" lon="5.17695">
        <ele>726</ele>
        <time>2022-11-17T10:28:38Z</time>
      </trkpt>
      <trkpt lat="44.66307" lon="5.17681">
        <ele>728</ele>
        <time>2022-11-17T10:28:38Z</time>
      </trkpt>
      <trkpt lat="44.66357" lon="5.17657">
        <ele>728</ele>
        <time>2022-11-17T10:28:38Z</time>
      </trkpt>
      <trkpt lat="44.66373" lon="5.17636">
        <ele>728</ele>
        <time>2022-11-17T10:28:38Z</time>
      </trkpt>
      <trkpt lat="44.66381" lon="5.17611">
        <ele>728</ele>
        <time>2022-11-17T10:28:38Z</time>
      </trkpt>
      <trkpt lat="44.6638" lon="5.17589">
        <ele>728</ele>
        <time>2022-11-17T10:28:38Z</time>
      </trkpt>
      <trkpt lat="44.66378" lon="5.17577">
        <ele>728</ele>
        <time>2022-11-17T10:28:38Z</time>
      </trkpt>
      <trkpt lat="44.66366" lon="5.1756">
        <ele>729</ele>
        <time>2022-11-17T10:28:38Z</time>
      </trkpt>
      <trkpt lat="44.66363" lon="5.17545">
        <ele>729</ele>
        <time>2022-11-17T10:28:38Z</time>
      </trkpt>
      <trkpt lat="44.66364" lon="5.1753">
        <ele>730</ele>
        <time>2022-11-17T10:28:38Z</time>
      </trkpt>
      <trkpt lat="44.66379" lon="5.17475">
        <ele>731</ele>
        <time>2022-11-17T10:28:38Z</time>
      </trkpt>
      <trkpt lat="44.66389" lon="5.17461">
        <ele>731</ele>
        <time>2022-11-17T10:28:38Z</time>
      </trkpt>
      <trkpt lat="44.66394" lon="5.17446">
        <ele>731</ele>
        <time>2022-11-17T10:28:38Z</time>
      </trkpt>
      <trkpt lat="44.66388" lon="5.174">
        <ele>731</ele>
        <time>2022-11-17T10:28:38Z</time>
      </trkpt>
      <trkpt lat="44.66364" lon="5.17346">
        <ele>731</ele>
        <time>2022-11-17T10:28:38Z</time>
      </trkpt>
      <trkpt lat="44.66361" lon="5.17326">
        <ele>731</ele>
        <time>2022-11-17T10:28:38Z</time>
      </trkpt>
      <trkpt lat="44.66396" lon="5.17263">
        <ele>731</ele>
        <time>2022-11-17T10:28:38Z</time>
      </trkpt>
      <trkpt lat="44.66398" lon="5.17218">
        <ele>730</ele>
        <time>2022-11-17T10:28:38Z</time>
      </trkpt>
      <trkpt lat="44.66381" lon="5.17046">
        <ele>730</ele>
        <time>2022-11-17T10:28:38Z</time>
      </trkpt>
      <trkpt lat="44.66401" lon="5.17002">
        <ele>731</ele>
        <time>2022-11-17T10:28:38Z</time>
      </trkpt>
      <trkpt lat="44.66426" lon="5.1697">
        <ele>730</ele>
        <time>2022-11-17T10:28:38Z</time>
      </trkpt>
      <trkpt lat="44.66469" lon="5.16939">
        <ele>727</ele>
        <time>2022-11-17T10:28:38Z</time>
      </trkpt>
      <trkpt lat="44.66518" lon="5.16888">
        <ele>723</ele>
        <time>2022-11-17T10:28:38Z</time>
      </trkpt>
      <trkpt lat="44.66544" lon="5.16824">
        <ele>717</ele>
        <time>2022-11-17T10:28:38Z</time>
      </trkpt>
      <trkpt lat="44.66551" lon="5.16766">
        <ele>712</ele>
        <time>2022-11-17T10:28:38Z</time>
      </trkpt>
      <trkpt lat="44.66552" lon="5.16643">
        <ele>702</ele>
        <time>2022-11-17T10:28:38Z</time>
      </trkpt>
      <trkpt lat="44.66568" lon="5.16501">
        <ele>693</ele>
        <time>2022-11-17T10:28:38Z</time>
      </trkpt>
      <trkpt lat="44.66605" lon="5.16396">
        <ele>687</ele>
        <time>2022-11-17T10:28:38Z</time>
      </trkpt>
      <trkpt lat="44.66619" lon="5.16285">
        <ele>684</ele>
        <time>2022-11-17T10:28:38Z</time>
      </trkpt>
      <trkpt lat="44.66625" lon="5.16268">
        <ele>682</ele>
        <time>2022-11-17T10:28:38Z</time>
      </trkpt>
      <trkpt lat="44.66663" lon="5.16232">
        <ele>679</ele>
        <time>2022-11-17T10:28:38Z</time>
      </trkpt>
      <trkpt lat="44.66673" lon="5.16212">
        <ele>676</ele>
        <time>2022-11-17T10:28:38Z</time>
      </trkpt>
      <trkpt lat="44.66685" lon="5.16103">
        <ele>677</ele>
        <time>2022-11-17T10:28:38Z</time>
      </trkpt>
      <trkpt lat="44.66678" lon="5.16053">
        <ele>678</ele>
        <time>2022-11-17T10:28:38Z</time>
      </trkpt>
      <trkpt lat="44.66683" lon="5.15963">
        <ele>678</ele>
        <time>2022-11-17T10:28:38Z</time>
      </trkpt>
      <trkpt lat="44.66676" lon="5.15936">
        <ele>678</ele>
        <time>2022-11-17T10:28:38Z</time>
      </trkpt>
      <trkpt lat="44.6663" lon="5.15827">
        <ele>675</ele>
        <time>2022-11-17T10:28:38Z</time>
      </trkpt>
      <trkpt lat="44.66623" lon="5.15819">
        <ele>673</ele>
        <time>2022-11-17T10:28:38Z</time>
      </trkpt>
      <trkpt lat="44.66619" lon="5.15805">
        <ele>672</ele>
        <time>2022-11-17T10:28:38Z</time>
      </trkpt>
      <trkpt lat="44.66625" lon="5.15697">
        <ele>669</ele>
        <time>2022-11-17T10:28:38Z</time>
      </trkpt>
      <trkpt lat="44.66618" lon="5.15634">
        <ele>669</ele>
        <time>2022-11-17T10:28:38Z</time>
      </trkpt>
      <trkpt lat="44.66622" lon="5.1562">
        <ele>672</ele>
        <time>2022-11-17T10:28:38Z</time>
      </trkpt>
      <trkpt lat="44.66643" lon="5.15612">
        <ele>671</ele>
        <time>2022-11-17T10:28:38Z</time>
      </trkpt>
      <trkpt lat="44.66719" lon="5.15546">
        <ele>671</ele>
        <time>2022-11-17T10:28:38Z</time>
      </trkpt>
      <trkpt lat="44.66769" lon="5.15531">
        <ele>669</ele>
        <time>2022-11-17T10:28:38Z</time>
      </trkpt>
      <trkpt lat="44.66782" lon="5.15519">
        <ele>667</ele>
        <time>2022-11-17T10:28:38Z</time>
      </trkpt>
      <trkpt lat="44.66792" lon="5.15505">
        <ele>666</ele>
        <time>2022-11-17T10:28:38Z</time>
      </trkpt>
      <trkpt lat="44.66794" lon="5.15469">
        <ele>664</ele>
        <time>2022-11-17T10:28:38Z</time>
      </trkpt>
      <trkpt lat="44.6684" lon="5.1537">
        <ele>657</ele>
        <time>2022-11-17T10:28:38Z</time>
      </trkpt>
      <trkpt lat="44.66838" lon="5.15359">
        <ele>653</ele>
        <time>2022-11-17T10:28:38Z</time>
      </trkpt>
      <trkpt lat="44.66827" lon="5.1534">
        <ele>649</ele>
        <time>2022-11-17T10:28:38Z</time>
      </trkpt>
      <trkpt lat="44.66825" lon="5.15329">
        <ele>647</ele>
        <time>2022-11-17T10:28:38Z</time>
      </trkpt>
      <trkpt lat="44.66827" lon="5.15317">
        <ele>644</ele>
        <time>2022-11-17T10:28:38Z</time>
      </trkpt>
      <trkpt lat="44.66826" lon="5.15292">
        <ele>641</ele>
        <time>2022-11-17T10:28:38Z</time>
      </trkpt>
      <trkpt lat="44.66811" lon="5.15251">
        <ele>639</ele>
        <time>2022-11-17T10:28:38Z</time>
      </trkpt>
      <trkpt lat="44.66809" lon="5.15237">
        <ele>637</ele>
        <time>2022-11-17T10:28:38Z</time>
      </trkpt>
      <trkpt lat="44.66812" lon="5.15177">
        <ele>635</ele>
        <time>2022-11-17T10:28:38Z</time>
      </trkpt>
      <trkpt lat="44.66807" lon="5.15154">
        <ele>632</ele>
        <time>2022-11-17T10:28:38Z</time>
      </trkpt>
      <trkpt lat="44.66785" lon="5.15115">
        <ele>629</ele>
        <time>2022-11-17T10:28:38Z</time>
      </trkpt>
      <trkpt lat="44.66748" lon="5.15072">
        <ele>625</ele>
        <time>2022-11-17T10:28:38Z</time>
      </trkpt>
      <trkpt lat="44.66741" lon="5.15054">
        <ele>621</ele>
        <time>2022-11-17T10:28:38Z</time>
      </trkpt>
      <trkpt lat="44.66741" lon="5.14963">
        <ele>615</ele>
        <time>2022-11-17T10:28:38Z</time>
      </trkpt>
      <trkpt lat="44.66754" lon="5.14919">
        <ele>610</ele>
        <time>2022-11-17T10:28:38Z</time>
      </trkpt>
      <trkpt lat="44.66766" lon="5.149">
        <ele>606</ele>
        <time>2022-11-17T10:28:38Z</time>
      </trkpt>
      <trkpt lat="44.66777" lon="5.14892">
        <ele>602</ele>
        <time>2022-11-17T10:28:38Z</time>
      </trkpt>
      <trkpt lat="44.66784" lon="5.14879">
        <ele>599</ele>
        <time>2022-11-17T10:28:38Z</time>
      </trkpt>
      <trkpt lat="44.66786" lon="5.14823">
        <ele>596</ele>
        <time>2022-11-17T10:28:38Z</time>
      </trkpt>
      <trkpt lat="44.6681" lon="5.1475">
        <ele>594</ele>
        <time>2022-11-17T10:28:38Z</time>
      </trkpt>
      <trkpt lat="44.66815" lon="5.14742">
        <ele>592</ele>
        <time>2022-11-17T10:28:38Z</time>
      </trkpt>
      <trkpt lat="44.66819" lon="5.14728">
        <ele>591</ele>
        <time>2022-11-17T10:28:38Z</time>
      </trkpt>
      <trkpt lat="44.66812" lon="5.14698">
        <ele>590</ele>
        <time>2022-11-17T10:28:38Z</time>
      </trkpt>
      <trkpt lat="44.66792" lon="5.1467">
        <ele>590</ele>
        <time>2022-11-17T10:28:38Z</time>
      </trkpt>
      <trkpt lat="44.66778" lon="5.14664">
        <ele>590</ele>
        <time>2022-11-17T10:28:38Z</time>
      </trkpt>
      <trkpt lat="44.66755" lon="5.14669">
        <ele>591</ele>
        <time>2022-11-17T10:28:38Z</time>
      </trkpt>
      <trkpt lat="44.66681" lon="5.14593">
        <ele>590</ele>
        <time>2022-11-17T10:28:38Z</time>
      </trkpt>
      <trkpt lat="44.66675" lon="5.14578">
        <ele>589</ele>
        <time>2022-11-17T10:28:38Z</time>
      </trkpt>
      <trkpt lat="44.66692" lon="5.1449">
        <ele>585</ele>
        <time>2022-11-17T10:28:38Z</time>
      </trkpt>
      <trkpt lat="44.66696" lon="5.14482">
        <ele>582</ele>
        <time>2022-11-17T10:28:38Z</time>
      </trkpt>
      <trkpt lat="44.66705" lon="5.14476">
        <ele>580</ele>
        <time>2022-11-17T10:28:38Z</time>
      </trkpt>
      <trkpt lat="44.66712" lon="5.14476">
        <ele>578</ele>
        <time>2022-11-17T10:28:38Z</time>
      </trkpt>
      <trkpt lat="44.66725" lon="5.14527">
        <ele>575</ele>
        <time>2022-11-17T10:28:38Z</time>
      </trkpt>
      <trkpt lat="44.66744" lon="5.14559">
        <ele>574</ele>
        <time>2022-11-17T10:28:38Z</time>
      </trkpt>
      <trkpt lat="44.66754" lon="5.14562">
        <ele>572</ele>
        <time>2022-11-17T10:28:38Z</time>
      </trkpt>
      <trkpt lat="44.6678" lon="5.14389">
        <ele>566</ele>
        <time>2022-11-17T10:28:38Z</time>
      </trkpt>
      <trkpt lat="44.66803" lon="5.14324">
        <ele>562</ele>
        <time>2022-11-17T10:28:38Z</time>
      </trkpt>
      <trkpt lat="44.66822" lon="5.14297">
        <ele>559</ele>
        <time>2022-11-17T10:28:38Z</time>
      </trkpt>
      <trkpt lat="44.6683" lon="5.14274">
        <ele>556</ele>
        <time>2022-11-17T10:28:38Z</time>
      </trkpt>
      <trkpt lat="44.66821" lon="5.14211">
        <ele>556</ele>
        <time>2022-11-17T10:28:38Z</time>
      </trkpt>
      <trkpt lat="44.66826" lon="5.14174">
        <ele>555</ele>
        <time>2022-11-17T10:28:38Z</time>
      </trkpt>
      <trkpt lat="44.66869" lon="5.14057">
        <ele>555</ele>
        <time>2022-11-17T10:28:38Z</time>
      </trkpt>
      <trkpt lat="44.66883" lon="5.14046">
        <ele>553</ele>
        <time>2022-11-17T10:28:38Z</time>
      </trkpt>
      <trkpt lat="44.66895" lon="5.14026">
        <ele>545</ele>
        <time>2022-11-17T10:28:38Z</time>
      </trkpt>
      <trkpt lat="44.66907" lon="5.13843">
        <ele>542</ele>
        <time>2022-11-17T10:28:38Z</time>
      </trkpt>
      <trkpt lat="44.66904" lon="5.13832">
        <ele>540</ele>
        <time>2022-11-17T10:28:38Z</time>
      </trkpt>
      <trkpt lat="44.66866" lon="5.1376">
        <ele>538</ele>
        <time>2022-11-17T10:28:38Z</time>
      </trkpt>
      <trkpt lat="44.66861" lon="5.13717">
        <ele>537</ele>
        <time>2022-11-17T10:28:38Z</time>
      </trkpt>
      <trkpt lat="44.66863" lon="5.13704">
        <ele>536</ele>
        <time>2022-11-17T10:28:38Z</time>
      </trkpt>
      <trkpt lat="44.66876" lon="5.13683">
        <ele>534</ele>
        <time>2022-11-17T10:28:38Z</time>
      </trkpt>
      <trkpt lat="44.66887" lon="5.13648">
        <ele>534</ele>
        <time>2022-11-17T10:28:38Z</time>
      </trkpt>
      <trkpt lat="44.66917" lon="5.13609">
        <ele>531</ele>
        <time>2022-11-17T10:28:38Z</time>
      </trkpt>
      <trkpt lat="44.66937" lon="5.13565">
        <ele>529</ele>
        <time>2022-11-17T10:28:38Z</time>
      </trkpt>
      <trkpt lat="44.66983" lon="5.1351">
        <ele>526</ele>
        <time>2022-11-17T10:28:38Z</time>
      </trkpt>
      <trkpt lat="44.66989" lon="5.13505">
        <ele>524</ele>
        <time>2022-11-17T10:28:38Z</time>
      </trkpt>
      <trkpt lat="44.67026" lon="5.13506">
        <ele>523</ele>
        <time>2022-11-17T10:28:38Z</time>
      </trkpt>
      <trkpt lat="44.67034" lon="5.13503">
        <ele>521</ele>
        <time>2022-11-17T10:28:38Z</time>
      </trkpt>
      <trkpt lat="44.67039" lon="5.1349">
        <ele>521</ele>
        <time>2022-11-17T10:28:38Z</time>
      </trkpt>
      <trkpt lat="44.6704" lon="5.13425">
        <ele>519</ele>
        <time>2022-11-17T10:28:38Z</time>
      </trkpt>
      <trkpt lat="44.67037" lon="5.13411">
        <ele>518</ele>
        <time>2022-11-17T10:28:38Z</time>
      </trkpt>
      <trkpt lat="44.67026" lon="5.13396">
        <ele>518</ele>
        <time>2022-11-17T10:28:38Z</time>
      </trkpt>
      <trkpt lat="44.67021" lon="5.13378">
        <ele>518</ele>
        <time>2022-11-17T10:28:38Z</time>
      </trkpt>
      <trkpt lat="44.6702" lon="5.13309">
        <ele>517</ele>
        <time>2022-11-17T10:28:38Z</time>
      </trkpt>
      <trkpt lat="44.67046" lon="5.13202">
        <ele>519</ele>
        <time>2022-11-17T10:28:38Z</time>
      </trkpt>
      <trkpt lat="44.67072" lon="5.13175">
        <ele>520</ele>
        <time>2022-11-17T10:28:38Z</time>
      </trkpt>
      <trkpt lat="44.6711" lon="5.13085">
        <ele>521</ele>
        <time>2022-11-17T10:28:38Z</time>
      </trkpt>
      <trkpt lat="44.67113" lon="5.13023">
        <ele>522</ele>
        <time>2022-11-17T10:28:38Z</time>
      </trkpt>
      <trkpt lat="44.6711" lon="5.13012">
        <ele>522</ele>
        <time>2022-11-17T10:28:38Z</time>
      </trkpt>
      <trkpt lat="44.67108" lon="5.12958">
        <ele>523</ele>
        <time>2022-11-17T10:28:38Z</time>
      </trkpt>
      <trkpt lat="44.67116" lon="5.12969">
        <ele>522</ele>
        <time>2022-11-17T10:28:38Z</time>
      </trkpt>
      <trkpt lat="44.67136" lon="5.13013">
        <ele>521</ele>
        <time>2022-11-17T10:28:38Z</time>
      </trkpt>
      <trkpt lat="44.67136" lon="5.12962">
        <ele>520</ele>
        <time>2022-11-17T10:28:38Z</time>
      </trkpt>
      <trkpt lat="44.67189" lon="5.12881">
        <ele>515</ele>
        <time>2022-11-17T10:28:38Z</time>
      </trkpt>
      <trkpt lat="44.67193" lon="5.12842">
        <ele>511</ele>
        <time>2022-11-17T10:28:38Z</time>
      </trkpt>
      <trkpt lat="44.67203" lon="5.12843">
        <ele>508</ele>
        <time>2022-11-17T10:28:38Z</time>
      </trkpt>
      <trkpt lat="44.67208" lon="5.12857">
        <ele>506</ele>
        <time>2022-11-17T10:28:38Z</time>
      </trkpt>
      <trkpt lat="44.67197" lon="5.1291">
        <ele>505</ele>
        <time>2022-11-17T10:28:38Z</time>
      </trkpt>
      <trkpt lat="44.67202" lon="5.1292">
        <ele>503</ele>
        <time>2022-11-17T10:28:38Z</time>
      </trkpt>
      <trkpt lat="44.67213" lon="5.12913">
        <ele>501</ele>
        <time>2022-11-17T10:28:38Z</time>
      </trkpt>
      <trkpt lat="44.6723" lon="5.12853">
        <ele>499</ele>
        <time>2022-11-17T10:28:38Z</time>
      </trkpt>
      <trkpt lat="44.67228" lon="5.12828">
        <ele>497</ele>
        <time>2022-11-17T10:28:38Z</time>
      </trkpt>
      <trkpt lat="44.67173" lon="5.12751">
        <ele>495</ele>
        <time>2022-11-17T10:28:38Z</time>
      </trkpt>
      <trkpt lat="44.67149" lon="5.12696">
        <ele>492</ele>
        <time>2022-11-17T10:28:38Z</time>
      </trkpt>
      <trkpt lat="44.67143" lon="5.12657">
        <ele>489</ele>
        <time>2022-11-17T10:28:38Z</time>
      </trkpt>
      <trkpt lat="44.6714" lon="5.12648">
        <ele>486</ele>
        <time>2022-11-17T10:28:38Z</time>
      </trkpt>
      <trkpt lat="44.6712" lon="5.12622">
        <ele>485</ele>
        <time>2022-11-17T10:28:38Z</time>
      </trkpt>
      <trkpt lat="44.6705" lon="5.12449">
        <ele>482</ele>
        <time>2022-11-17T10:28:38Z</time>
      </trkpt>
      <trkpt lat="44.67048" lon="5.12435">
        <ele>480</ele>
        <time>2022-11-17T10:28:38Z</time>
      </trkpt>
      <trkpt lat="44.6705" lon="5.12423">
        <ele>478</ele>
        <time>2022-11-17T10:28:38Z</time>
      </trkpt>
      <trkpt lat="44.67065" lon="5.12384">
        <ele>476</ele>
        <time>2022-11-17T10:28:38Z</time>
      </trkpt>
      <trkpt lat="44.67068" lon="5.1232">
        <ele>474</ele>
        <time>2022-11-17T10:28:38Z</time>
      </trkpt>
      <trkpt lat="44.67078" lon="5.12309">
        <ele>472</ele>
        <time>2022-11-17T10:28:38Z</time>
      </trkpt>
      <trkpt lat="44.67118" lon="5.12287">
        <ele>469</ele>
        <time>2022-11-17T10:28:38Z</time>
      </trkpt>
      <trkpt lat="44.67147" lon="5.1226">
        <ele>455</ele>
        <time>2022-11-17T10:28:38Z</time>
      </trkpt>
      <trkpt lat="44.67154" lon="5.12257">
        <ele>455</ele>
        <time>2022-11-17T10:28:38Z</time>
      </trkpt>
      <trkpt lat="44.67163" lon="5.1226">
        <ele>454</ele>
        <time>2022-11-17T10:28:38Z</time>
      </trkpt>
      <trkpt lat="44.67168" lon="5.12271">
        <ele>454</ele>
        <time>2022-11-17T10:28:38Z</time>
      </trkpt>
      <trkpt lat="44.67166" lon="5.12285">
        <ele>453</ele>
        <time>2022-11-17T10:28:38Z</time>
      </trkpt>
      <trkpt lat="44.67151" lon="5.12301">
        <ele>453</ele>
        <time>2022-11-17T10:28:38Z</time>
      </trkpt>
      <trkpt lat="44.67152" lon="5.12313">
        <ele>452</ele>
        <time>2022-11-17T10:28:38Z</time>
      </trkpt>
      <trkpt lat="44.67162" lon="5.12312">
        <ele>451</ele>
        <time>2022-11-17T10:28:38Z</time>
      </trkpt>
      <trkpt lat="44.67212" lon="5.12278">
        <ele>450</ele>
        <time>2022-11-17T10:28:38Z</time>
      </trkpt>
      <trkpt lat="44.67269" lon="5.12263">
        <ele>448</ele>
        <time>2022-11-17T10:28:38Z</time>
      </trkpt>
      <trkpt lat="44.67284" lon="5.12252">
        <ele>446</ele>
        <time>2022-11-17T10:28:38Z</time>
      </trkpt>
      <trkpt lat="44.67328" lon="5.12198">
        <ele>443</ele>
        <time>2022-11-17T10:28:38Z</time>
      </trkpt>
      <trkpt lat="44.67337" lon="5.12193">
        <ele>440</ele>
        <time>2022-11-17T10:28:38Z</time>
      </trkpt>
      <trkpt lat="44.67337" lon="5.12183">
        <ele>438</ele>
        <time>2022-11-17T10:28:38Z</time>
      </trkpt>
      <trkpt lat="44.67293" lon="5.12115">
        <ele>435</ele>
        <time>2022-11-17T10:28:38Z</time>
      </trkpt>
      <trkpt lat="44.67195" lon="5.12056">
        <ele>436</ele>
        <time>2022-11-17T10:28:38Z</time>
      </trkpt>
      <trkpt lat="44.67193" lon="5.12044">
        <ele>436</ele>
        <time>2022-11-17T10:28:38Z</time>
      </trkpt>
      <trkpt lat="44.67198" lon="5.12035">
        <ele>437</ele>
        <time>2022-11-17T10:28:38Z</time>
      </trkpt>
      <trkpt lat="44.6721" lon="5.12023">
        <ele>437</ele>
        <time>2022-11-17T10:28:38Z</time>
      </trkpt>
      <trkpt lat="44.67246" lon="5.12004">
        <ele>437</ele>
        <time>2022-11-17T10:28:38Z</time>
      </trkpt>
      <trkpt lat="44.67254" lon="5.11994">
        <ele>438</ele>
        <time>2022-11-17T10:28:38Z</time>
      </trkpt>
      <trkpt lat="44.67275" lon="5.11942">
        <ele>438</ele>
        <time>2022-11-17T10:28:38Z</time>
      </trkpt>
      <trkpt lat="44.67276" lon="5.11929">
        <ele>439</ele>
        <time>2022-11-17T10:28:38Z</time>
      </trkpt>
      <trkpt lat="44.67274" lon="5.11917">
        <ele>439</ele>
        <time>2022-11-17T10:28:38Z</time>
      </trkpt>
      <trkpt lat="44.6725" lon="5.11857">
        <ele>439</ele>
        <time>2022-11-17T10:28:38Z</time>
      </trkpt>
      <trkpt lat="44.6725" lon="5.11843">
        <ele>439</ele>
        <time>2022-11-17T10:28:38Z</time>
      </trkpt>
      <trkpt lat="44.67254" lon="5.11834">
        <ele>439</ele>
        <time>2022-11-17T10:28:38Z</time>
      </trkpt>
      <trkpt lat="44.6726" lon="5.11822">
        <ele>439</ele>
        <time>2022-11-17T10:28:38Z</time>
      </trkpt>
      <trkpt lat="44.67322" lon="5.11766">
        <ele>439</ele>
        <time>2022-11-17T10:28:38Z</time>
      </trkpt>
      <trkpt lat="44.6735" lon="5.11716">
        <ele>440</ele>
        <time>2022-11-17T10:28:38Z</time>
      </trkpt>
      <trkpt lat="44.67351" lon="5.11704">
        <ele>440</ele>
        <time>2022-11-17T10:28:38Z</time>
      </trkpt>
      <trkpt lat="44.67342" lon="5.11697">
        <ele>441</ele>
        <time>2022-11-17T10:28:38Z</time>
      </trkpt>
      <trkpt lat="44.67319" lon="5.11696">
        <ele>442</ele>
        <time>2022-11-17T10:28:38Z</time>
      </trkpt>
      <trkpt lat="44.67308" lon="5.11701">
        <ele>443</ele>
        <time>2022-11-17T10:28:38Z</time>
      </trkpt>
      <trkpt lat="44.67269" lon="5.11743">
        <ele>445</ele>
        <time>2022-11-17T10:28:38Z</time>
      </trkpt>
      <trkpt lat="44.67213" lon="5.11771">
        <ele>448</ele>
        <time>2022-11-17T10:28:38Z</time>
      </trkpt>
      <trkpt lat="44.67204" lon="5.1177">
        <ele>449</ele>
        <time>2022-11-17T10:28:38Z</time>
      </trkpt>
      <trkpt lat="44.67183" lon="5.11755">
        <ele>451</ele>
        <time>2022-11-17T10:28:38Z</time>
      </trkpt>
      <trkpt lat="44.67176" lon="5.11755">
        <ele>452</ele>
        <time>2022-11-17T10:28:38Z</time>
      </trkpt>
      <trkpt lat="44.67159" lon="5.11764">
        <ele>454</ele>
        <time>2022-11-17T10:28:38Z</time>
      </trkpt>
      <trkpt lat="44.67152" lon="5.11764">
        <ele>455</ele>
        <time>2022-11-17T10:28:38Z</time>
      </trkpt>
      <trkpt lat="44.67144" lon="5.11758">
        <ele>457</ele>
        <time>2022-11-17T10:28:38Z</time>
      </trkpt>
      <trkpt lat="44.67131" lon="5.11723">
        <ele>458</ele>
        <time>2022-11-17T10:28:38Z</time>
      </trkpt>
      <trkpt lat="44.67121" lon="5.11711">
        <ele>460</ele>
        <time>2022-11-17T10:28:38Z</time>
      </trkpt>
      <trkpt lat="44.67112" lon="5.11709">
        <ele>461</ele>
        <time>2022-11-17T10:28:38Z</time>
      </trkpt>
      <trkpt lat="44.67102" lon="5.11715">
        <ele>463</ele>
        <time>2022-11-17T10:28:38Z</time>
      </trkpt>
      <trkpt lat="44.67093" lon="5.11727">
        <ele>465</ele>
        <time>2022-11-17T10:28:38Z</time>
      </trkpt>
      <trkpt lat="44.67077" lon="5.11774">
        <ele>468</ele>
        <time>2022-11-17T10:28:38Z</time>
      </trkpt>
      <trkpt lat="44.67072" lon="5.11783">
        <ele>470</ele>
        <time>2022-11-17T10:28:38Z</time>
      </trkpt>
      <trkpt lat="44.67064" lon="5.11788">
        <ele>473</ele>
        <time>2022-11-17T10:28:38Z</time>
      </trkpt>
      <trkpt lat="44.67057" lon="5.11786">
        <ele>489</ele>
        <time>2022-11-17T10:28:38Z</time>
      </trkpt>
      <trkpt lat="44.67051" lon="5.11775">
        <ele>489</ele>
        <time>2022-11-17T10:28:38Z</time>
      </trkpt>
      <trkpt lat="44.67044" lon="5.11735">
        <ele>489</ele>
        <time>2022-11-17T10:28:38Z</time>
      </trkpt>
      <trkpt lat="44.67035" lon="5.11725">
        <ele>489</ele>
        <time>2022-11-17T10:28:38Z</time>
      </trkpt>
      <trkpt lat="44.66988" lon="5.117">
        <ele>491</ele>
        <time>2022-11-17T10:28:38Z</time>
      </trkpt>
      <trkpt lat="44.66978" lon="5.1169">
        <ele>493</ele>
        <time>2022-11-17T10:28:38Z</time>
      </trkpt>
      <trkpt lat="44.66973" lon="5.11679">
        <ele>495</ele>
        <time>2022-11-17T10:28:38Z</time>
      </trkpt>
      <trkpt lat="44.6697" lon="5.11662">
        <ele>496</ele>
        <time>2022-11-17T10:28:38Z</time>
      </trkpt>
      <trkpt lat="44.6696" lon="5.11643">
        <ele>498</ele>
        <time>2022-11-17T10:28:38Z</time>
      </trkpt>
      <trkpt lat="44.6696" lon="5.11627">
        <ele>499</ele>
        <time>2022-11-17T10:28:38Z</time>
      </trkpt>
      <trkpt lat="44.6697" lon="5.11594">
        <ele>501</ele>
        <time>2022-11-17T10:28:38Z</time>
      </trkpt>
      <trkpt lat="44.66984" lon="5.11567">
        <ele>501</ele>
        <time>2022-11-17T10:28:38Z</time>
      </trkpt>
      <trkpt lat="44.66985" lon="5.11556">
        <ele>502</ele>
        <time>2022-11-17T10:28:38Z</time>
      </trkpt>
      <trkpt lat="44.66978" lon="5.11537">
        <ele>503</ele>
        <time>2022-11-17T10:28:38Z</time>
      </trkpt>
      <trkpt lat="44.66938" lon="5.1149">
        <ele>506</ele>
        <time>2022-11-17T10:28:38Z</time>
      </trkpt>
      <trkpt lat="44.66932" lon="5.11474">
        <ele>509</ele>
        <time>2022-11-17T10:28:38Z</time>
      </trkpt>
      <trkpt lat="44.66931" lon="5.11443">
        <ele>511</ele>
        <time>2022-11-17T10:28:38Z</time>
      </trkpt>
      <trkpt lat="44.66933" lon="5.11339">
        <ele>515</ele>
        <time>2022-11-17T10:28:38Z</time>
      </trkpt>
      <trkpt lat="44.66938" lon="5.11327">
        <ele>518</ele>
        <time>2022-11-17T10:28:38Z</time>
      </trkpt>
      <trkpt lat="44.66945" lon="5.11324">
        <ele>519</ele>
        <time>2022-11-17T10:28:38Z</time>
      </trkpt>
      <trkpt lat="44.66994" lon="5.11255">
        <ele>521</ele>
        <time>2022-11-17T10:28:38Z</time>
      </trkpt>
      <trkpt lat="44.6701" lon="5.1124">
        <ele>522</ele>
        <time>2022-11-17T10:28:38Z</time>
      </trkpt>
      <trkpt lat="44.67021" lon="5.11217">
        <ele>523</ele>
        <time>2022-11-17T10:28:38Z</time>
      </trkpt>
      <trkpt lat="44.6702" lon="5.11202">
        <ele>523</ele>
        <time>2022-11-17T10:28:38Z</time>
      </trkpt>
      <trkpt lat="44.67005" lon="5.11145">
        <ele>526</ele>
        <time>2022-11-17T10:28:38Z</time>
      </trkpt>
      <trkpt lat="44.67007" lon="5.11108">
        <ele>528</ele>
        <time>2022-11-17T10:28:38Z</time>
      </trkpt>
      <trkpt lat="44.67043" lon="5.11005">
        <ele>529</ele>
        <time>2022-11-17T10:28:38Z</time>
      </trkpt>
      <trkpt lat="44.67044" lon="5.10985">
        <ele>529</ele>
        <time>2022-11-17T10:28:38Z</time>
      </trkpt>
      <trkpt lat="44.6704" lon="5.10969">
        <ele>530</ele>
        <time>2022-11-17T10:28:38Z</time>
      </trkpt>
      <trkpt lat="44.67031" lon="5.10952">
        <ele>530</ele>
        <time>2022-11-17T10:28:38Z</time>
      </trkpt>
      <trkpt lat="44.6702" lon="5.10941">
        <ele>530</ele>
        <time>2022-11-17T10:28:38Z</time>
      </trkpt>
      <trkpt lat="44.67007" lon="5.10934">
        <ele>530</ele>
        <time>2022-11-17T10:28:38Z</time>
      </trkpt>
      <trkpt lat="44.66999" lon="5.10927">
        <ele>530</ele>
        <time>2022-11-17T10:28:38Z</time>
      </trkpt>
      <trkpt lat="44.66994" lon="5.10906">
        <ele>530</ele>
        <time>2022-11-17T10:28:38Z</time>
      </trkpt>
      <trkpt lat="44.66991" lon="5.1088">
        <ele>530</ele>
        <time>2022-11-17T10:28:39Z</time>
      </trkpt>
      <trkpt lat="44.66993" lon="5.1086">
        <ele>530</ele>
        <time>2022-11-17T10:28:39Z</time>
      </trkpt>
      <trkpt lat="44.67026" lon="5.10751">
        <ele>526</ele>
        <time>2022-11-17T10:28:39Z</time>
      </trkpt>
      <trkpt lat="44.67087" lon="5.10737">
        <ele>516</ele>
        <time>2022-11-17T10:28:39Z</time>
      </trkpt>
      <trkpt lat="44.67164" lon="5.10659">
        <ele>510</ele>
        <time>2022-11-17T10:28:39Z</time>
      </trkpt>
      <trkpt lat="44.67162" lon="5.10648">
        <ele>506</ele>
        <time>2022-11-17T10:28:39Z</time>
      </trkpt>
      <trkpt lat="44.67079" lon="5.10631">
        <ele>507</ele>
        <time>2022-11-17T10:28:39Z</time>
      </trkpt>
      <trkpt lat="44.67072" lon="5.10623">
        <ele>507</ele>
        <time>2022-11-17T10:28:39Z</time>
      </trkpt>
      <trkpt lat="44.67067" lon="5.10607">
        <ele>508</ele>
        <time>2022-11-17T10:28:39Z</time>
      </trkpt>
      <trkpt lat="44.67065" lon="5.10593">
        <ele>509</ele>
        <time>2022-11-17T10:28:39Z</time>
      </trkpt>
      <trkpt lat="44.6708" lon="5.10451">
        <ele>509</ele>
        <time>2022-11-17T10:28:39Z</time>
      </trkpt>
      <trkpt lat="44.671" lon="5.10394">
        <ele>509</ele>
        <time>2022-11-17T10:28:39Z</time>
      </trkpt>
      <trkpt lat="44.67103" lon="5.10371">
        <ele>507</ele>
        <time>2022-11-17T10:28:39Z</time>
      </trkpt>
      <trkpt lat="44.671" lon="5.10353">
        <ele>506</ele>
        <time>2022-11-17T10:28:39Z</time>
      </trkpt>
      <trkpt lat="44.67083" lon="5.10332">
        <ele>505</ele>
        <time>2022-11-17T10:28:39Z</time>
      </trkpt>
      <trkpt lat="44.67073" lon="5.10327">
        <ele>505</ele>
        <time>2022-11-17T10:28:39Z</time>
      </trkpt>
      <trkpt lat="44.67074" lon="5.10311">
        <ele>506</ele>
        <time>2022-11-17T10:28:39Z</time>
      </trkpt>
      <trkpt lat="44.67164" lon="5.10261">
        <ele>500</ele>
      </trkpt>
      <trkpt lat="44.67253" lon="5.1021">
        <ele>489</ele>
        <time>2022-11-17T10:28:39Z</time>
      </trkpt>
      <trkpt lat="44.67342" lon="5.10145">
        <ele>476</ele>
        <time>2022-11-17T10:28:39Z</time>
      </trkpt>
      <trkpt lat="44.67436" lon="5.10111">
        <ele>464</ele>
        <time>2022-11-17T10:28:39Z</time>
      </trkpt>
      <trkpt lat="44.67522" lon="5.10055">
        <ele>452</ele>
      </trkpt>
      <trkpt lat="44.67607" lon="5.09999">
        <ele>439</ele>
        <time>2022-11-17T10:28:39Z</time>
      </trkpt>
      <trkpt lat="44.6766" lon="5.10014">
        <ele>430</ele>
        <time>2022-11-17T10:28:39Z</time>
      </trkpt>
      <trkpt lat="44.67735" lon="5.09928">
        <ele>418</ele>
        <time>2022-11-17T10:28:39Z</time>
      </trkpt>
      <trkpt lat="44.67761" lon="5.09961">
        <ele>410</ele>
        <time>2022-11-17T10:28:39Z</time>
      </trkpt>
      <trkpt lat="44.67778" lon="5.09993">
        <ele>403</ele>
        <time>2022-11-17T10:28:39Z</time>
      </trkpt>
      <trkpt lat="44.67784" lon="5.0992">
        <ele>397</ele>
        <time>2022-11-17T10:28:39Z</time>
      </trkpt>
      <trkpt lat="44.67754" lon="5.09883">
        <ele>393</ele>
        <time>2022-11-17T10:28:39Z</time>
      </trkpt>
      <trkpt lat="44.67744" lon="5.09843">
        <ele>391</ele>
        <time>2022-11-17T10:28:39Z</time>
      </trkpt>
      <trkpt lat="44.67756" lon="5.09849">
        <ele>389</ele>
        <time>2022-11-17T10:28:39Z</time>
      </trkpt>
      <trkpt lat="44.67789" lon="5.0985">
        <ele>387</ele>
        <time>2022-11-17T10:28:39Z</time>
      </trkpt>
      <trkpt lat="44.67822" lon="5.09867">
        <ele>384</ele>
        <time>2022-11-17T10:28:39Z</time>
      </trkpt>
      <trkpt lat="44.67875" lon="5.09867">
        <ele>380</ele>
        <time>2022-11-17T10:28:39Z</time>
      </trkpt>
      <trkpt lat="44.67902" lon="5.09852">
        <ele>376</ele>
        <time>2022-11-17T10:28:39Z</time>
      </trkpt>
      <trkpt lat="44.67901" lon="5.09864">
        <ele>373</ele>
        <time>2022-11-17T10:28:39Z</time>
      </trkpt>
      <trkpt lat="44.67894" lon="5.09873">
        <ele>370</ele>
        <time>2022-11-17T10:28:39Z</time>
      </trkpt>
      <trkpt lat="44.67896" lon="5.09884">
        <ele>368</ele>
        <time>2022-11-17T10:28:39Z</time>
      </trkpt>
      <trkpt lat="44.67922" lon="5.0988">
        <ele>365</ele>
        <time>2022-11-17T10:28:39Z</time>
      </trkpt>
      <trkpt lat="44.6793" lon="5.09875">
        <ele>363</ele>
        <time>2022-11-17T10:28:39Z</time>
      </trkpt>
      <trkpt lat="44.67936" lon="5.09867">
        <ele>361</ele>
        <time>2022-11-17T10:28:39Z</time>
      </trkpt>
      <trkpt lat="44.67948" lon="5.09861">
        <ele>359</ele>
        <time>2022-11-17T10:28:39Z</time>
      </trkpt>
      <trkpt lat="44.67972" lon="5.0988">
        <ele>357</ele>
        <time>2022-11-17T10:28:39Z</time>
      </trkpt>
      <trkpt lat="44.67979" lon="5.09889">
        <ele>354</ele>
        <time>2022-11-17T10:28:39Z</time>
      </trkpt>
      <trkpt lat="44.6803" lon="5.09922">
        <ele>349</ele>
        <time>2022-11-17T10:28:39Z</time>
      </trkpt>
      <trkpt lat="44.68125" lon="5.0996">
        <ele>344</ele>
        <time>2022-11-17T10:28:39Z</time>
      </trkpt>
      <trkpt lat="44.68132" lon="5.09971">
        <ele>340</ele>
        <time>2022-11-17T10:28:39Z</time>
      </trkpt>
      <trkpt lat="44.68194" lon="5.10031">
        <ele>338</ele>
        <time>2022-11-17T10:28:39Z</time>
      </trkpt>
      <trkpt lat="44.68215" lon="5.10065">
        <ele>337</ele>
        <time>2022-11-17T10:28:39Z</time>
      </trkpt>
      <trkpt lat="44.68221" lon="5.10081">
        <ele>336</ele>
        <time>2022-11-17T10:28:39Z</time>
      </trkpt>
      <trkpt lat="44.68269" lon="5.10143">
        <ele>336</ele>
        <time>2022-11-17T10:28:39Z</time>
      </trkpt>
      <trkpt lat="44.68322" lon="5.10191">
        <ele>334</ele>
        <time>2022-11-17T10:28:39Z</time>
      </trkpt>
      <trkpt lat="44.68362" lon="5.10206">
        <ele>332</ele>
        <time>2022-11-17T10:28:39Z</time>
      </trkpt>
      <trkpt lat="44.68409" lon="5.10238">
        <ele>328</ele>
      </trkpt>
      <trkpt lat="44.68455" lon="5.1027">
        <ele>326</ele>
        <time>2022-11-17T10:28:39Z</time>
      </trkpt>
      <trkpt lat="44.68516" lon="5.10258">
        <ele>325</ele>
      </trkpt>
      <trkpt lat="44.68576" lon="5.10246">
        <ele>326</ele>
        <time>2022-11-17T10:28:39Z</time>
      </trkpt>
      <trkpt lat="44.68642" lon="5.10253">
        <ele>328</ele>
      </trkpt>
      <trkpt lat="44.68707" lon="5.1026">
        <ele>330</ele>
        <time>2022-11-17T10:28:39Z</time>
      </trkpt>
      <trkpt lat="44.6879" lon="5.10243">
        <ele>333</ele>
        <time>2022-11-17T10:28:39Z</time>
      </trkpt>
      <trkpt lat="44.68864" lon="5.10267">
        <ele>335</ele>
        <time>2022-11-17T10:28:39Z</time>
      </trkpt>
      <trkpt lat="44.68921" lon="5.10305">
        <ele>335</ele>
      </trkpt>
      <trkpt lat="44.68978" lon="5.10343">
        <ele>334</ele>
        <time>2022-11-17T10:28:39Z</time>
      </trkpt>
      <trkpt lat="44.68989" lon="5.10345">
        <ele>334</ele>
        <time>2022-11-17T10:28:39Z</time>
      </trkpt>
      <trkpt lat="44.69002" lon="5.10357">
        <ele>333</ele>
        <time>2022-11-17T10:28:39Z</time>
      </trkpt>
      <trkpt lat="44.69014" lon="5.10363">
        <ele>332</ele>
        <time>2022-11-17T10:28:39Z</time>
      </trkpt>
      <trkpt lat="44.69037" lon="5.10361">
        <ele>330</ele>
        <time>2022-11-17T10:28:39Z</time>
      </trkpt>
      <trkpt lat="44.69047" lon="5.10363">
        <ele>329</ele>
        <time>2022-11-17T10:28:39Z</time>
      </trkpt>
      <trkpt lat="44.69083" lon="5.10386">
        <ele>327</ele>
        <time>2022-11-17T10:28:39Z</time>
      </trkpt>
      <trkpt lat="44.69106" lon="5.10381">
        <ele>325</ele>
        <time>2022-11-17T10:28:39Z</time>
      </trkpt>
      <trkpt lat="44.69156" lon="5.104">
        <ele>326</ele>
        <time>2022-11-17T10:28:39Z</time>
      </trkpt>
      <trkpt lat="44.69225" lon="5.104">
        <ele>328</ele>
        <time>2022-11-17T10:28:39Z</time>
      </trkpt>
      <trkpt lat="44.69233" lon="5.10397">
        <ele>332</ele>
        <time>2022-11-17T10:28:39Z</time>
      </trkpt>
      <trkpt lat="44.69255" lon="5.10396">
        <ele>332</ele>
        <time>2022-11-17T10:28:39Z</time>
      </trkpt>
      <trkpt lat="44.69303" lon="5.10384">
        <ele>330</ele>
      </trkpt>
      <trkpt lat="44.69351" lon="5.10373">
        <ele>327</ele>
      </trkpt>
      <trkpt lat="44.69399" lon="5.10361">
        <ele>323</ele>
      </trkpt>
      <trkpt lat="44.69447" lon="5.10349">
        <ele>320</ele>
        <time>2022-11-17T10:28:39Z</time>
      </trkpt>
      <trkpt lat="44.69456" lon="5.10352">
        <ele>318</ele>
        <time>2022-11-17T10:28:39Z</time>
      </trkpt>
      <trkpt lat="44.6948" lon="5.10345">
        <ele>316</ele>
        <time>2022-11-17T10:28:39Z</time>
      </trkpt>
      <trkpt lat="44.69505" lon="5.10324">
        <ele>315</ele>
        <time>2022-11-17T10:28:39Z</time>
      </trkpt>
      <trkpt lat="44.69548" lon="5.10243">
        <ele>311</ele>
        <time>2022-11-17T10:28:39Z</time>
      </trkpt>
      <trkpt lat="44.6956" lon="5.10231">
        <ele>308</ele>
        <time>2022-11-17T10:28:39Z</time>
      </trkpt>
      <trkpt lat="44.69567" lon="5.10227">
        <ele>306</ele>
        <time>2022-11-17T10:28:39Z</time>
      </trkpt>
      <trkpt lat="44.69575" lon="5.10218">
        <ele>305</ele>
        <time>2022-11-17T10:28:39Z</time>
      </trkpt>
      <trkpt lat="44.69581" lon="5.10207">
        <ele>303</ele>
        <time>2022-11-17T10:28:39Z</time>
      </trkpt>
      <trkpt lat="44.69647" lon="5.10154">
        <ele>300</ele>
        <time>2022-11-17T10:28:39Z</time>
      </trkpt>
      <trkpt lat="44.69703" lon="5.10127">
        <ele>294</ele>
      </trkpt>
      <trkpt lat="44.69759" lon="5.10099">
        <ele>287</ele>
        <time>2022-11-17T10:28:39Z</time>
      </trkpt>
      <trkpt lat="44.6977" lon="5.10089">
        <ele>283</ele>
        <time>2022-11-17T10:28:39Z</time>
      </trkpt>
      <trkpt lat="44.6979" lon="5.10013">
        <ele>278</ele>
        <time>2022-11-17T10:28:39Z</time>
      </trkpt>
      <trkpt lat="44.69792" lon="5.09998">
        <ele>275</ele>
        <time>2022-11-17T10:28:39Z</time>
      </trkpt>
      <trkpt lat="44.69795" lon="5.09988">
        <ele>272</ele>
        <time>2022-11-17T10:28:39Z</time>
      </trkpt>
      <trkpt lat="44.69826" lon="5.09937">
        <ele>268</ele>
        <time>2022-11-17T10:28:39Z</time>
      </trkpt>
      <trkpt lat="44.699" lon="5.09869">
        <ele>261</ele>
        <time>2022-11-17T10:28:39Z</time>
      </trkpt>
      <trkpt lat="44.69908" lon="5.09867">
        <ele>256</ele>
        <time>2022-11-17T10:28:39Z</time>
      </trkpt>
      <trkpt lat="44.69916" lon="5.09862">
        <ele>252</ele>
        <time>2022-11-17T10:28:39Z</time>
      </trkpt>
      <trkpt lat="44.69922" lon="5.09855">
        <ele>250</ele>
        <time>2022-11-17T10:28:39Z</time>
      </trkpt>
      <trkpt lat="44.69947" lon="5.09856">
        <ele>247</ele>
        <time>2022-11-17T10:28:39Z</time>
      </trkpt>
      <trkpt lat="44.69952" lon="5.09937">
        <ele>245</ele>
      </trkpt>
      <trkpt lat="44.69956" lon="5.10017">
        <ele>242</ele>
        <time>2022-11-17T10:28:39Z</time>
      </trkpt>
      <trkpt lat="44.69939" lon="5.10105">
        <ele>242</ele>
      </trkpt>
      <trkpt lat="44.69921" lon="5.10192">
        <ele>242</ele>
        <time>2022-11-17T10:28:39Z</time>
      </trkpt>
      <trkpt lat="44.69892" lon="5.10282">
        <ele>242</ele>
      </trkpt>
      <trkpt lat="44.69863" lon="5.10371">
        <ele>242</ele>
        <time>2022-11-17T10:28:39Z</time>
      </trkpt>
      <trkpt lat="44.69855" lon="5.10436">
        <ele>242</ele>
        <time>2022-11-17T10:28:39Z</time>
      </trkpt>
      <trkpt lat="44.69861" lon="5.1051">
        <ele>242</ele>
        <time>2022-11-17T10:28:39Z</time>
      </trkpt>
      <trkpt lat="44.69838" lon="5.10577">
        <ele>242</ele>
      </trkpt>
      <trkpt lat="44.69815" lon="5.10643">
        <ele>242</ele>
      </trkpt>
      <trkpt lat="44.69791" lon="5.1071">
        <ele>242</ele>
      </trkpt>
      <trkpt lat="44.69768" lon="5.10776">
        <ele>242</ele>
        <time>2022-11-17T10:28:39Z</time>
      </trkpt>
      <trkpt lat="44.69748" lon="5.10805">
        <ele>242</ele>
        <time>2022-11-17T10:28:39Z</time>
      </trkpt>
      <trkpt lat="44.69741" lon="5.10821">
        <ele>242</ele>
        <time>2022-11-17T10:28:39Z</time>
      </trkpt>
      <trkpt lat="44.69743" lon="5.10918">
        <ele>241</ele>
      </trkpt>
      <trkpt lat="44.69744" lon="5.11014">
        <ele>240</ele>
        <time>2022-11-17T10:28:39Z</time>
      </trkpt>
      <trkpt lat="44.69735" lon="5.11016">
        <ele>239</ele>
        <time>2022-11-17T10:28:39Z</time>
      </trkpt>
      <trkpt lat="44.69732" lon="5.11029">
        <ele>239</ele>
        <time>2022-11-17T10:28:39Z</time>
      </trkpt>
      <trkpt lat="44.69782" lon="5.11081">
        <ele>237</ele>
        <time>2022-11-17T10:28:39Z</time>
      </trkpt>
      <trkpt lat="44.6981" lon="5.11143">
        <ele>236</ele>
        <time>2022-11-17T10:28:39Z</time>
      </trkpt>
      <trkpt lat="44.69784" lon="5.11218">
        <ele>235</ele>
        <time>2022-11-17T10:28:39Z</time>
      </trkpt>
      <trkpt lat="44.69753" lon="5.11285">
        <ele>235</ele>
      </trkpt>
      <trkpt lat="44.69721" lon="5.11351">
        <ele>235</ele>
        <time>2022-11-17T10:28:39Z</time>
      </trkpt>
      <trkpt lat="44.69708" lon="5.11396">
        <ele>235</ele>
        <time>2022-11-17T10:28:39Z</time>
      </trkpt>
      <trkpt lat="44.69685" lon="5.11458">
        <ele>234</ele>
      </trkpt>
      <trkpt lat="44.69662" lon="5.1152">
        <ele>234</ele>
      </trkpt>
      <trkpt lat="44.69638" lon="5.11581">
        <ele>235</ele>
      </trkpt>
      <trkpt lat="44.69615" lon="5.11643">
        <ele>235</ele>
        <time>2022-11-17T10:28:39Z</time>
      </trkpt>
      <trkpt lat="44.696" lon="5.11704">
        <ele>235</ele>
      </trkpt>
      <trkpt lat="44.69584" lon="5.11765">
        <ele>235</ele>
      </trkpt>
      <trkpt lat="44.69569" lon="5.11826">
        <ele>235</ele>
      </trkpt>
      <trkpt lat="44.69553" lon="5.11888">
        <ele>235</ele>
      </trkpt>
      <trkpt lat="44.69538" lon="5.11949">
        <ele>236</ele>
      </trkpt>
      <trkpt lat="44.69522" lon="5.1201">
        <ele>236</ele>
      </trkpt>
      <trkpt lat="44.69507" lon="5.12071">
        <ele>235</ele>
      </trkpt>
      <trkpt lat="44.69491" lon="5.12132">
        <ele>234</ele>
        <time>2022-11-17T10:28:39Z</time>
      </trkpt>
      <trkpt lat="44.69531" lon="5.12154">
        <ele>234</ele>
        <time>2022-11-17T10:28:39Z</time>
      </trkpt>
      <trkpt lat="44.69526" lon="5.12251">
        <ele>232</ele>
      </trkpt>
      <trkpt lat="44.69521" lon="5.12348">
        <ele>232</ele>
      </trkpt>
      <trkpt lat="44.69516" lon="5.12445">
        <ele>231</ele>
      </trkpt>
      <trkpt lat="44.69511" lon="5.12542">
        <ele>232</ele>
        <time>2022-11-17T10:28:39Z</time>
      </trkpt>
      <trkpt lat="44.69456" lon="5.12589">
        <ele>235</ele>
        <time>2022-11-17T10:28:39Z</time>
      </trkpt>
      <trkpt lat="44.69403" lon="5.12581">
        <ele>238</ele>
        <time>2022-11-17T10:28:39Z</time>
      </trkpt>
      <trkpt lat="44.6932" lon="5.12538">
        <ele>241</ele>
        <time>2022-11-17T10:28:39Z</time>
      </trkpt>
      <trkpt lat="44.69273" lon="5.12474">
        <ele>246</ele>
      </trkpt>
      <trkpt lat="44.69226" lon="5.12411">
        <ele>254</ele>
        <time>2022-11-17T10:28:39Z</time>
      </trkpt>
      <trkpt lat="44.69161" lon="5.12409">
        <ele>259</ele>
      </trkpt>
      <trkpt lat="44.69096" lon="5.12407">
        <ele>265</ele>
        <time>2022-11-17T10:28:39Z</time>
      </trkpt>
      <trkpt lat="44.69096" lon="5.12371">
        <ele>268</ele>
        <time>2022-11-17T10:28:39Z</time>
      </trkpt>
      <trkpt lat="44.69081" lon="5.12411">
        <ele>270</ele>
        <time>2022-11-17T10:28:39Z</time>
      </trkpt>
      <trkpt lat="44.69046" lon="5.12545">
        <ele>277</ele>
        <time>2022-11-17T10:28:39Z</time>
      </trkpt>
      <trkpt lat="44.69041" lon="5.12555">
        <ele>277</ele>
        <time>2022-11-17T10:28:39Z</time>
      </trkpt>
      <trkpt lat="44.69038" lon="5.12566">
        <ele>277</ele>
        <time>2022-11-17T10:28:39Z</time>
      </trkpt>
      <trkpt lat="44.69037" lon="5.126">
        <ele>277</ele>
        <time>2022-11-17T10:28:39Z</time>
      </trkpt>
      <trkpt lat="44.69026" lon="5.12643">
        <ele>276</ele>
        <time>2022-11-17T10:28:39Z</time>
      </trkpt>
      <trkpt lat="44.69012" lon="5.12671">
        <ele>276</ele>
        <time>2022-11-17T10:28:39Z</time>
      </trkpt>
      <trkpt lat="44.69013" lon="5.12682">
        <ele>276</ele>
        <time>2022-11-17T10:28:39Z</time>
      </trkpt>
      <trkpt lat="44.69028" lon="5.12715">
        <ele>277</ele>
        <time>2022-11-17T10:28:39Z</time>
      </trkpt>
      <trkpt lat="44.69076" lon="5.12898">
        <ele>277</ele>
        <time>2022-11-17T10:28:39Z</time>
      </trkpt>
      <trkpt lat="44.69089" lon="5.13019">
        <ele>278</ele>
        <time>2022-11-17T10:28:39Z</time>
      </trkpt>
      <trkpt lat="44.68862" lon="5.13032">
        <ele>285</ele>
        <time>2022-11-17T10:28:39Z</time>
      </trkpt>
      <trkpt lat="44.68852" lon="5.13027">
        <ele>289</ele>
        <time>2022-11-17T10:28:39Z</time>
      </trkpt>
      <trkpt lat="44.68834" lon="5.13009">
        <ele>292</ele>
        <time>2022-11-17T10:28:39Z</time>
      </trkpt>
      <trkpt lat="44.68727" lon="5.1302">
        <ele>300</ele>
        <time>2022-11-17T10:28:39Z</time>
      </trkpt>
      <trkpt lat="44.68639" lon="5.12974">
        <ele>306</ele>
        <time>2022-11-17T10:28:39Z</time>
      </trkpt>
      <trkpt lat="44.6862" lon="5.12975">
        <ele>310</ele>
        <time>2022-11-17T10:28:39Z</time>
      </trkpt>
      <trkpt lat="44.68603" lon="5.12987">
        <ele>312</ele>
        <time>2022-11-17T10:28:39Z</time>
      </trkpt>
      <trkpt lat="44.68596" lon="5.12997">
        <ele>314</ele>
        <time>2022-11-17T10:28:39Z</time>
      </trkpt>
      <trkpt lat="44.6859" lon="5.13016">
        <ele>314</ele>
        <time>2022-11-17T10:28:39Z</time>
      </trkpt>
      <trkpt lat="44.68573" lon="5.13034">
        <ele>315</ele>
        <time>2022-11-17T10:28:39Z</time>
      </trkpt>
      <trkpt lat="44.68553" lon="5.1304">
        <ele>315</ele>
        <time>2022-11-17T10:28:39Z</time>
      </trkpt>
      <trkpt lat="44.68545" lon="5.13049">
        <ele>315</ele>
        <time>2022-11-17T10:28:39Z</time>
      </trkpt>
      <trkpt lat="44.68501" lon="5.13062">
        <ele>315</ele>
        <time>2022-11-17T10:28:39Z</time>
      </trkpt>
      <trkpt lat="44.68495" lon="5.13069">
        <ele>316</ele>
        <time>2022-11-17T10:28:39Z</time>
      </trkpt>
      <trkpt lat="44.68481" lon="5.13127">
        <ele>316</ele>
        <time>2022-11-17T10:28:39Z</time>
      </trkpt>
      <trkpt lat="44.6846" lon="5.13157">
        <ele>315</ele>
        <time>2022-11-17T10:28:39Z</time>
      </trkpt>
      <trkpt lat="44.68452" lon="5.13163">
        <ele>315</ele>
        <time>2022-11-17T10:28:39Z</time>
      </trkpt>
      <trkpt lat="44.68389" lon="5.13191">
        <ele>313</ele>
        <time>2022-11-17T10:28:39Z</time>
      </trkpt>
      <trkpt lat="44.6838" lon="5.1319">
        <ele>311</ele>
        <time>2022-11-17T10:28:39Z</time>
      </trkpt>
      <trkpt lat="44.68354" lon="5.13177">
        <ele>311</ele>
        <time>2022-11-17T10:28:39Z</time>
      </trkpt>
      <trkpt lat="44.68351" lon="5.13189">
        <ele>310</ele>
        <time>2022-11-17T10:28:39Z</time>
      </trkpt>
      <trkpt lat="44.68352" lon="5.13202">
        <ele>309</ele>
        <time>2022-11-17T10:28:39Z</time>
      </trkpt>
      <trkpt lat="44.68347" lon="5.13214">
        <ele>308</ele>
        <time>2022-11-17T10:28:39Z</time>
      </trkpt>
      <trkpt lat="44.68313" lon="5.13238">
        <ele>307</ele>
        <time>2022-11-17T10:28:39Z</time>
      </trkpt>
      <trkpt lat="44.68298" lon="5.13238">
        <ele>306</ele>
        <time>2022-11-17T10:28:39Z</time>
      </trkpt>
      <trkpt lat="44.68273" lon="5.13222">
        <ele>307</ele>
        <time>2022-11-17T10:28:39Z</time>
      </trkpt>
      <trkpt lat="44.68244" lon="5.1322">
        <ele>307</ele>
        <time>2022-11-17T10:28:39Z</time>
      </trkpt>
      <trkpt lat="44.68237" lon="5.13229">
        <ele>308</ele>
        <time>2022-11-17T10:28:39Z</time>
      </trkpt>
      <trkpt lat="44.68234" lon="5.13238">
        <ele>308</ele>
        <time>2022-11-17T10:28:39Z</time>
      </trkpt>
      <trkpt lat="44.68268" lon="5.13314">
        <ele>307</ele>
        <time>2022-11-17T10:28:39Z</time>
      </trkpt>
      <trkpt lat="44.68239" lon="5.1336">
        <ele>309</ele>
        <time>2022-11-17T10:28:39Z</time>
      </trkpt>
      <trkpt lat="44.68321" lon="5.13484">
        <ele>314</ele>
        <time>2022-11-17T10:28:39Z</time>
      </trkpt>
      <trkpt lat="44.68316" lon="5.13591">
        <ele>318</ele>
        <time>2022-11-17T10:28:39Z</time>
      </trkpt>
      <trkpt lat="44.68324" lon="5.13649">
        <ele>322</ele>
        <time>2022-11-17T10:28:39Z</time>
      </trkpt>
      <trkpt lat="44.68345" lon="5.13673">
        <ele>325</ele>
        <time>2022-11-17T10:28:39Z</time>
      </trkpt>
      <trkpt lat="44.68361" lon="5.13722">
        <ele>327</ele>
        <time>2022-11-17T10:28:39Z</time>
      </trkpt>
      <trkpt lat="44.68332" lon="5.13786">
        <ele>326</ele>
        <time>2022-11-17T10:28:39Z</time>
      </trkpt>
      <trkpt lat="44.68309" lon="5.13789">
        <ele>325</ele>
        <time>2022-11-17T10:28:39Z</time>
      </trkpt>
      <trkpt lat="44.68298" lon="5.13798">
        <ele>325</ele>
        <time>2022-11-17T10:28:39Z</time>
      </trkpt>
      <trkpt lat="44.68278" lon="5.13845">
        <ele>323</ele>
        <time>2022-11-17T10:28:39Z</time>
      </trkpt>
      <trkpt lat="44.68239" lon="5.13895">
        <ele>310</ele>
        <time>2022-11-17T10:28:39Z</time>
      </trkpt>
      <trkpt lat="44.68211" lon="5.13917">
        <ele>310</ele>
        <time>2022-11-17T10:28:39Z</time>
      </trkpt>
      <trkpt lat="44.68216" lon="5.1393">
        <ele>309</ele>
        <time>2022-11-17T10:28:39Z</time>
      </trkpt>
      <trkpt lat="44.68223" lon="5.13938">
        <ele>308</ele>
        <time>2022-11-17T10:28:39Z</time>
      </trkpt>
      <trkpt lat="44.68233" lon="5.13941">
        <ele>307</ele>
        <time>2022-11-17T10:28:39Z</time>
      </trkpt>
      <trkpt lat="44.68247" lon="5.1393">
        <ele>307</ele>
        <time>2022-11-17T10:28:39Z</time>
      </trkpt>
      <trkpt lat="44.6826" lon="5.13926">
        <ele>306</ele>
        <time>2022-11-17T10:28:39Z</time>
      </trkpt>
      <trkpt lat="44.6827" lon="5.13929">
        <ele>306</ele>
        <time>2022-11-17T10:28:39Z</time>
      </trkpt>
      <trkpt lat="44.68287" lon="5.13953">
        <ele>305</ele>
        <time>2022-11-17T10:28:39Z</time>
      </trkpt>
      <trkpt lat="44.68292" lon="5.13973">
        <ele>304</ele>
        <time>2022-11-17T10:28:39Z</time>
      </trkpt>
      <trkpt lat="44.68297" lon="5.13983">
        <ele>303</ele>
        <time>2022-11-17T10:28:39Z</time>
      </trkpt>
      <trkpt lat="44.68307" lon="5.13988">
        <ele>302</ele>
        <time>2022-11-17T10:28:39Z</time>
      </trkpt>
      <trkpt lat="44.68345" lon="5.13985">
        <ele>302</ele>
        <time>2022-11-17T10:28:39Z</time>
      </trkpt>
      <trkpt lat="44.68363" lon="5.13991">
        <ele>301</ele>
        <time>2022-11-17T10:28:39Z</time>
      </trkpt>
      <trkpt lat="44.68449" lon="5.14029">
        <ele>301</ele>
        <time>2022-11-17T10:28:39Z</time>
      </trkpt>
      <trkpt lat="44.68503" lon="5.14036">
        <ele>303</ele>
        <time>2022-11-17T10:28:39Z</time>
      </trkpt>
      <trkpt lat="44.68567" lon="5.14027">
        <ele>303</ele>
        <time>2022-11-17T10:28:39Z</time>
      </trkpt>
      <trkpt lat="44.68806" lon="5.141">
        <ele>302</ele>
        <time>2022-11-17T10:28:39Z</time>
      </trkpt>
      <trkpt lat="44.68696" lon="5.14098">
        <ele>303</ele>
        <time>2022-11-17T10:28:39Z</time>
      </trkpt>
      <trkpt lat="44.68634" lon="5.14134">
        <ele>309</ele>
        <time>2022-11-17T10:28:39Z</time>
      </trkpt>
      <trkpt lat="44.68631" lon="5.1416">
        <ele>312</ele>
        <time>2022-11-17T10:28:39Z</time>
      </trkpt>
      <trkpt lat="44.68593" lon="5.14154">
        <ele>316</ele>
        <time>2022-11-17T10:28:39Z</time>
      </trkpt>
      <trkpt lat="44.68576" lon="5.14185">
        <ele>319</ele>
        <time>2022-11-17T10:28:39Z</time>
      </trkpt>
      <trkpt lat="44.68499" lon="5.14252">
        <ele>323</ele>
        <time>2022-11-17T10:28:39Z</time>
      </trkpt>
      <trkpt lat="44.6847" lon="5.14291">
        <ele>325</ele>
        <time>2022-11-17T10:28:39Z</time>
      </trkpt>
      <trkpt lat="44.68433" lon="5.14373">
        <ele>327</ele>
        <time>2022-11-17T10:28:39Z</time>
      </trkpt>
      <trkpt lat="44.68407" lon="5.14399">
        <ele>328</ele>
        <time>2022-11-17T10:28:39Z</time>
      </trkpt>
      <trkpt lat="44.684" lon="5.1441">
        <ele>329</ele>
        <time>2022-11-17T10:28:39Z</time>
      </trkpt>
      <trkpt lat="44.68402" lon="5.14443">
        <ele>328</ele>
        <time>2022-11-17T10:28:39Z</time>
      </trkpt>
      <trkpt lat="44.684" lon="5.14455">
        <ele>328</ele>
        <time>2022-11-17T10:28:39Z</time>
      </trkpt>
      <trkpt lat="44.68388" lon="5.14473">
        <ele>327</ele>
        <time>2022-11-17T10:28:39Z</time>
      </trkpt>
      <trkpt lat="44.68352" lon="5.14492">
        <ele>327</ele>
        <time>2022-11-17T10:28:39Z</time>
      </trkpt>
      <trkpt lat="44.68349" lon="5.14502">
        <ele>327</ele>
        <time>2022-11-17T10:28:39Z</time>
      </trkpt>
      <trkpt lat="44.68348" lon="5.14529">
        <ele>327</ele>
        <time>2022-11-17T10:28:39Z</time>
      </trkpt>
      <trkpt lat="44.68326" lon="5.14577">
        <ele>329</ele>
        <time>2022-11-17T10:28:39Z</time>
      </trkpt>
      <trkpt lat="44.6832" lon="5.14638">
        <ele>331</ele>
        <time>2022-11-17T10:28:39Z</time>
      </trkpt>
      <trkpt lat="44.68312" lon="5.14664">
        <ele>334</ele>
        <time>2022-11-17T10:28:39Z</time>
      </trkpt>
      <trkpt lat="44.68305" lon="5.14714">
        <ele>336</ele>
        <time>2022-11-17T10:28:39Z</time>
      </trkpt>
      <trkpt lat="44.683" lon="5.14721">
        <ele>337</ele>
        <time>2022-11-17T10:28:39Z</time>
      </trkpt>
      <trkpt lat="44.68275" lon="5.14734">
        <ele>339</ele>
        <time>2022-11-17T10:28:39Z</time>
      </trkpt>
      <trkpt lat="44.68265" lon="5.14748">
        <ele>341</ele>
        <time>2022-11-17T10:28:39Z</time>
      </trkpt>
      <trkpt lat="44.68262" lon="5.14776">
        <ele>342</ele>
        <time>2022-11-17T10:28:39Z</time>
      </trkpt>
      <trkpt lat="44.68266" lon="5.14877">
        <ele>343</ele>
        <time>2022-11-17T10:28:39Z</time>
      </trkpt>
      <trkpt lat="44.6829" lon="5.14941">
        <ele>345</ele>
        <time>2022-11-17T10:28:39Z</time>
      </trkpt>
      <trkpt lat="44.68292" lon="5.14978">
        <ele>346</ele>
        <time>2022-11-17T10:28:39Z</time>
      </trkpt>
      <trkpt lat="44.68289" lon="5.14989">
        <ele>346</ele>
        <time>2022-11-17T10:28:39Z</time>
      </trkpt>
      <trkpt lat="44.6826" lon="5.15026">
        <ele>348</ele>
        <time>2022-11-17T10:28:39Z</time>
      </trkpt>
      <trkpt lat="44.68244" lon="5.15065">
        <ele>348</ele>
        <time>2022-11-17T10:28:39Z</time>
      </trkpt>
      <trkpt lat="44.68237" lon="5.15072">
        <ele>348</ele>
        <time>2022-11-17T10:28:39Z</time>
      </trkpt>
      <trkpt lat="44.68203" lon="5.15089">
        <ele>348</ele>
        <time>2022-11-17T10:28:39Z</time>
      </trkpt>
      <trkpt lat="44.68194" lon="5.1509">
        <ele>346</ele>
        <time>2022-11-17T10:28:39Z</time>
      </trkpt>
      <trkpt lat="44.68157" lon="5.15067">
        <ele>347</ele>
        <time>2022-11-17T10:28:39Z</time>
      </trkpt>
      <trkpt lat="44.68097" lon="5.15093">
        <ele>346</ele>
        <time>2022-11-17T10:28:39Z</time>
      </trkpt>
      <trkpt lat="44.68091" lon="5.15103">
        <ele>345</ele>
        <time>2022-11-17T10:28:39Z</time>
      </trkpt>
      <trkpt lat="44.6809" lon="5.15117">
        <ele>345</ele>
        <time>2022-11-17T10:28:39Z</time>
      </trkpt>
      <trkpt lat="44.68088" lon="5.15127">
        <ele>344</ele>
        <time>2022-11-17T10:28:39Z</time>
      </trkpt>
      <trkpt lat="44.68035" lon="5.15157">
        <ele>345</ele>
        <time>2022-11-17T10:28:39Z</time>
      </trkpt>
      <trkpt lat="44.68027" lon="5.15168">
        <ele>345</ele>
        <time>2022-11-17T10:28:39Z</time>
      </trkpt>
      <trkpt lat="44.67965" lon="5.15166">
        <ele>347</ele>
      </trkpt>
      <trkpt lat="44.67903" lon="5.15164">
        <ele>351</ele>
        <time>2022-11-17T10:28:39Z</time>
      </trkpt>
      <trkpt lat="44.67868" lon="5.15177">
        <ele>354</ele>
        <time>2022-11-17T10:28:39Z</time>
      </trkpt>
      <trkpt lat="44.67857" lon="5.15192">
        <ele>355</ele>
        <time>2022-11-17T10:28:39Z</time>
      </trkpt>
      <trkpt lat="44.67813" lon="5.15213">
        <ele>357</ele>
        <time>2022-11-17T10:28:39Z</time>
      </trkpt>
      <trkpt lat="44.67859" lon="5.15284">
        <ele>359</ele>
        <time>2022-11-17T10:28:39Z</time>
      </trkpt>
      <trkpt lat="44.67914" lon="5.1531">
        <ele>361</ele>
        <time>2022-11-17T10:28:39Z</time>
      </trkpt>
      <trkpt lat="44.67992" lon="5.15322">
        <ele>362</ele>
        <time>2022-11-17T10:28:39Z</time>
      </trkpt>
      <trkpt lat="44.67986" lon="5.15331">
        <ele>363</ele>
        <time>2022-11-17T10:28:39Z</time>
      </trkpt>
      <trkpt lat="44.67981" lon="5.15344">
        <ele>364</ele>
        <time>2022-11-17T10:28:39Z</time>
      </trkpt>
      <trkpt lat="44.67966" lon="5.15421">
        <ele>365</ele>
        <time>2022-11-17T10:28:39Z</time>
      </trkpt>
      <trkpt lat="44.67968" lon="5.15436">
        <ele>365</ele>
        <time>2022-11-17T10:28:39Z</time>
      </trkpt>
      <trkpt lat="44.6798" lon="5.15447">
        <ele>366</ele>
        <time>2022-11-17T10:28:39Z</time>
      </trkpt>
      <trkpt lat="44.67995" lon="5.15451">
        <ele>366</ele>
        <time>2022-11-17T10:28:39Z</time>
      </trkpt>
      <trkpt lat="44.68015" lon="5.15472">
        <ele>366</ele>
        <time>2022-11-17T10:28:39Z</time>
      </trkpt>
      <trkpt lat="44.6805" lon="5.15546">
        <ele>367</ele>
      </trkpt>
      <trkpt lat="44.68085" lon="5.15619">
        <ele>369</ele>
        <time>2022-11-17T10:28:39Z</time>
      </trkpt>
      <trkpt lat="44.68084" lon="5.15636">
        <ele>371</ele>
        <time>2022-11-17T10:28:39Z</time>
      </trkpt>
      <trkpt lat="44.68078" lon="5.1565">
        <ele>372</ele>
        <time>2022-11-17T10:28:39Z</time>
      </trkpt>
      <trkpt lat="44.68078" lon="5.15665">
        <ele>373</ele>
        <time>2022-11-17T10:28:39Z</time>
      </trkpt>
      <trkpt lat="44.68082" lon="5.15673">
        <ele>373</ele>
        <time>2022-11-17T10:28:39Z</time>
      </trkpt>
      <trkpt lat="44.68092" lon="5.15676">
        <ele>373</ele>
        <time>2022-11-17T10:28:39Z</time>
      </trkpt>
      <trkpt lat="44.68017" lon="5.15673">
        <ele>377</ele>
        <time>2022-11-17T10:28:39Z</time>
      </trkpt>
      <trkpt lat="44.67976" lon="5.15698">
        <ele>381</ele>
      </trkpt>
      <trkpt lat="44.67934" lon="5.15722">
        <ele>386</ele>
      </trkpt>
      <trkpt lat="44.67851" lon="5.15771">
        <ele>387</ele>
        <time>2022-11-17T10:28:39Z</time>
      </trkpt>
      <trkpt lat="44.67786" lon="5.15793">
        <ele>388</ele>
        <time>2022-11-17T10:28:39Z</time>
      </trkpt>
      <trkpt lat="44.67759" lon="5.15885">
        <ele>389</ele>
      </trkpt>
      <trkpt lat="44.67732" lon="5.15977">
        <ele>389</ele>
        <time>2022-11-17T10:28:39Z</time>
      </trkpt>
      <trkpt lat="44.67709" lon="5.15993">
        <ele>389</ele>
        <time>2022-11-17T10:28:39Z</time>
      </trkpt>
      <trkpt lat="44.67692" lon="5.16051">
        <ele>389</ele>
        <time>2022-11-17T10:28:39Z</time>
      </trkpt>
      <trkpt lat="44.67711" lon="5.16102">
        <ele>389</ele>
        <time>2022-11-17T10:28:39Z</time>
      </trkpt>
      <trkpt lat="44.67726" lon="5.16117">
        <ele>389</ele>
        <time>2022-11-17T10:28:39Z</time>
      </trkpt>
      <trkpt lat="44.67779" lon="5.16149">
        <ele>391</ele>
        <time>2022-11-17T10:28:39Z</time>
      </trkpt>
      <trkpt lat="44.67854" lon="5.16166">
        <ele>392</ele>
        <time>2022-11-17T10:28:39Z</time>
      </trkpt>
      <trkpt lat="44.67836" lon="5.16225">
        <ele>395</ele>
      </trkpt>
      <trkpt lat="44.67818" lon="5.16284">
        <ele>397</ele>
        <time>2022-11-17T10:28:39Z</time>
      </trkpt>
      <trkpt lat="44.67871" lon="5.16336">
        <ele>399</ele>
        <time>2022-11-17T10:28:39Z</time>
      </trkpt>
      <trkpt lat="44.67798" lon="5.16385">
        <ele>405</ele>
        <time>2022-11-17T10:28:39Z</time>
      </trkpt>
      <trkpt lat="44.67742" lon="5.16412">
        <ele>408</ele>
      </trkpt>
      <trkpt lat="44.67685" lon="5.16439">
        <ele>412</ele>
        <time>2022-11-17T10:28:39Z</time>
      </trkpt>
      <trkpt lat="44.67663" lon="5.1649">
        <ele>413</ele>
        <time>2022-11-17T10:28:39Z</time>
      </trkpt>
      <trkpt lat="44.67607" lon="5.16482">
        <ele>414</ele>
        <time>2022-11-17T10:28:39Z</time>
      </trkpt>
      <trkpt lat="44.67519" lon="5.16494">
        <ele>414</ele>
        <time>2022-11-17T10:28:39Z</time>
      </trkpt>
      <trkpt lat="44.67462" lon="5.16563">
        <ele>412</ele>
        <time>2022-11-17T10:28:39Z</time>
      </trkpt>
      <trkpt lat="44.67411" lon="5.16559">
        <ele>414</ele>
      </trkpt>
      <trkpt lat="44.6736" lon="5.16555">
        <ele>416</ele>
        <time>2022-11-17T10:28:39Z</time>
      </trkpt>
      <trkpt lat="44.67313" lon="5.16621">
        <ele>417</ele>
        <time>2022-11-17T10:28:39Z</time>
      </trkpt>
      <trkpt lat="44.67322" lon="5.16688">
        <ele>417</ele>
        <time>2022-11-17T10:28:39Z</time>
      </trkpt>
      <trkpt lat="44.67393" lon="5.16729">
        <ele>415</ele>
      </trkpt>
      <trkpt lat="44.67464" lon="5.16769">
        <ele>412</ele>
        <time>2022-11-17T10:28:39Z</time>
      </trkpt>
      <trkpt lat="44.67439" lon="5.16844">
        <ele>399</ele>
        <time>2022-11-17T10:28:39Z</time>
      </trkpt>
      <trkpt lat="44.67384" lon="5.16876">
        <ele>399</ele>
        <time>2022-11-17T10:28:39Z</time>
      </trkpt>
      <trkpt lat="44.68105" lon="5.16559">
        <ele>378</ele>
        <time>2022-11-17T10:28:39Z</time>
      </trkpt>
      <trkpt lat="44.68051" lon="5.16581">
        <ele>370</ele>
        <time>2022-11-17T10:28:39Z</time>
      </trkpt>
      <trkpt lat="44.68003" lon="5.16629">
        <ele>363</ele>
        <time>2022-11-17T10:28:39Z</time>
      </trkpt>
      <trkpt lat="44.67991" lon="5.16651">
        <ele>359</ele>
        <time>2022-11-17T10:28:39Z</time>
      </trkpt>
      <trkpt lat="44.67988" lon="5.16672">
        <ele>356</ele>
        <time>2022-11-17T10:28:39Z</time>
      </trkpt>
      <trkpt lat="44.67993" lon="5.16709">
        <ele>351</ele>
        <time>2022-11-17T10:28:39Z</time>
      </trkpt>
      <trkpt lat="44.67996" lon="5.16718">
        <ele>348</ele>
        <time>2022-11-17T10:28:39Z</time>
      </trkpt>
      <trkpt lat="44.68015" lon="5.16752">
        <ele>344</ele>
        <time>2022-11-17T10:28:39Z</time>
      </trkpt>
      <trkpt lat="44.68019" lon="5.16767">
        <ele>340</ele>
        <time>2022-11-17T10:28:39Z</time>
      </trkpt>
      <trkpt lat="44.6801" lon="5.16773">
        <ele>337</ele>
        <time>2022-11-17T10:28:39Z</time>
      </trkpt>
      <trkpt lat="44.67985" lon="5.16778">
        <ele>335</ele>
        <time>2022-11-17T10:28:39Z</time>
      </trkpt>
      <trkpt lat="44.67979" lon="5.16785">
        <ele>334</ele>
        <time>2022-11-17T10:28:39Z</time>
      </trkpt>
      <trkpt lat="44.68" lon="5.168">
        <ele>332</ele>
        <time>2022-11-17T10:28:39Z</time>
      </trkpt>
      <trkpt lat="44.68011" lon="5.16818">
        <ele>332</ele>
        <time>2022-11-17T10:28:39Z</time>
      </trkpt>
      <trkpt lat="44.68013" lon="5.16834">
        <ele>332</ele>
        <time>2022-11-17T10:28:39Z</time>
      </trkpt>
      <trkpt lat="44.6801" lon="5.16848">
        <ele>332</ele>
        <time>2022-11-17T10:28:39Z</time>
      </trkpt>
      <trkpt lat="44.67989" lon="5.1687">
        <ele>334</ele>
        <time>2022-11-17T10:28:39Z</time>
      </trkpt>
      <trkpt lat="44.67981" lon="5.16883">
        <ele>335</ele>
        <time>2022-11-17T10:28:39Z</time>
      </trkpt>
      <trkpt lat="44.67978" lon="5.16894">
        <ele>337</ele>
        <time>2022-11-17T10:28:39Z</time>
      </trkpt>
      <trkpt lat="44.67972" lon="5.16905">
        <ele>338</ele>
        <time>2022-11-17T10:28:39Z</time>
      </trkpt>
      <trkpt lat="44.6795" lon="5.16918">
        <ele>340</ele>
        <time>2022-11-17T10:28:39Z</time>
      </trkpt>
      <trkpt lat="44.67772" lon="5.16942">
        <ele>347</ele>
        <time>2022-11-17T10:28:39Z</time>
      </trkpt>
      <trkpt lat="44.67731" lon="5.16929">
        <ele>352</ele>
        <time>2022-11-17T10:28:39Z</time>
      </trkpt>
      <trkpt lat="44.67686" lon="5.16892">
        <ele>356</ele>
        <time>2022-11-17T10:28:39Z</time>
      </trkpt>
      <trkpt lat="44.67613" lon="5.16899">
        <ele>360</ele>
        <time>2022-11-17T10:28:39Z</time>
      </trkpt>
      <trkpt lat="44.67559" lon="5.16948">
        <ele>366</ele>
        <time>2022-11-17T10:28:39Z</time>
      </trkpt>
      <trkpt lat="44.67482" lon="5.16975">
        <ele>372</ele>
        <time>2022-11-17T10:28:39Z</time>
      </trkpt>
      <trkpt lat="44.67495" lon="5.16984">
        <ele>376</ele>
        <time>2022-11-17T10:28:39Z</time>
      </trkpt>
      <trkpt lat="44.67505" lon="5.16984">
        <ele>379</ele>
        <time>2022-11-17T10:28:39Z</time>
      </trkpt>
      <trkpt lat="44.67512" lon="5.16981">
        <ele>381</ele>
        <time>2022-11-17T10:28:39Z</time>
      </trkpt>
      <trkpt lat="44.67576" lon="5.16972">
        <ele>383</ele>
        <time>2022-11-17T10:28:39Z</time>
      </trkpt>
      <trkpt lat="44.67593" lon="5.1696">
        <ele>384</ele>
        <time>2022-11-17T10:28:39Z</time>
      </trkpt>
      <trkpt lat="44.67614" lon="5.16954">
        <ele>385</ele>
        <time>2022-11-17T10:28:39Z</time>
      </trkpt>
      <trkpt lat="44.67624" lon="5.1696">
        <ele>386</ele>
        <time>2022-11-17T10:28:39Z</time>
      </trkpt>
      <trkpt lat="44.67675" lon="5.17062">
        <ele>390</ele>
        <time>2022-11-17T10:28:39Z</time>
      </trkpt>
      <trkpt lat="44.67711" lon="5.17171">
        <ele>395</ele>
        <time>2022-11-17T10:28:39Z</time>
      </trkpt>
      <trkpt lat="44.67715" lon="5.17179">
        <ele>398</ele>
        <time>2022-11-17T10:28:39Z</time>
      </trkpt>
      <trkpt lat="44.67717" lon="5.17211">
        <ele>399</ele>
        <time>2022-11-17T10:28:39Z</time>
      </trkpt>
      <trkpt lat="44.67712" lon="5.17224">
        <ele>399</ele>
        <time>2022-11-17T10:28:39Z</time>
      </trkpt>
      <trkpt lat="44.67706" lon="5.17229">
        <ele>399</ele>
        <time>2022-11-17T10:28:39Z</time>
      </trkpt>
      <trkpt lat="44.67673" lon="5.1723">
        <ele>401</ele>
        <time>2022-11-17T10:28:39Z</time>
      </trkpt>
      <trkpt lat="44.67651" lon="5.17243">
        <ele>402</ele>
        <time>2022-11-17T10:28:39Z</time>
      </trkpt>
      <trkpt lat="44.67638" lon="5.17245">
        <ele>403</ele>
        <time>2022-11-17T10:28:39Z</time>
      </trkpt>
      <trkpt lat="44.6763" lon="5.1725">
        <ele>405</ele>
        <time>2022-11-17T10:28:39Z</time>
      </trkpt>
      <trkpt lat="44.67622" lon="5.1726">
        <ele>406</ele>
        <time>2022-11-17T10:28:39Z</time>
      </trkpt>
      <trkpt lat="44.67617" lon="5.17273">
        <ele>406</ele>
        <time>2022-11-17T10:28:39Z</time>
      </trkpt>
      <trkpt lat="44.67609" lon="5.17283">
        <ele>406</ele>
        <time>2022-11-17T10:28:39Z</time>
      </trkpt>
      <trkpt lat="44.67583" lon="5.173">
        <ele>408</ele>
        <time>2022-11-17T10:28:39Z</time>
      </trkpt>
      <trkpt lat="44.67562" lon="5.17342">
        <ele>409</ele>
        <time>2022-11-17T10:28:39Z</time>
      </trkpt>
      <trkpt lat="44.67525" lon="5.17373">
        <ele>411</ele>
        <time>2022-11-17T10:28:39Z</time>
      </trkpt>
      <trkpt lat="44.67449" lon="5.17486">
        <ele>412</ele>
        <time>2022-11-17T10:28:39Z</time>
      </trkpt>
      <trkpt lat="44.67436" lon="5.17494">
        <ele>412</ele>
        <time>2022-11-17T10:28:39Z</time>
      </trkpt>
      <trkpt lat="44.6742" lon="5.17497">
        <ele>413</ele>
        <time>2022-11-17T10:28:39Z</time>
      </trkpt>
      <trkpt lat="44.67411" lon="5.17509">
        <ele>414</ele>
        <time>2022-11-17T10:28:39Z</time>
      </trkpt>
      <trkpt lat="44.6741" lon="5.17526">
        <ele>415</ele>
        <time>2022-11-17T10:28:39Z</time>
      </trkpt>
      <trkpt lat="44.67423" lon="5.17532">
        <ele>415</ele>
        <time>2022-11-17T10:28:39Z</time>
      </trkpt>
      <trkpt lat="44.67431" lon="5.17532">
        <ele>415</ele>
        <time>2022-11-17T10:28:39Z</time>
      </trkpt>
      <trkpt lat="44.67435" lon="5.17544">
        <ele>415</ele>
        <time>2022-11-17T10:28:39Z</time>
      </trkpt>
      <trkpt lat="44.67429" lon="5.17559">
        <ele>416</ele>
        <time>2022-11-17T10:28:39Z</time>
      </trkpt>
      <trkpt lat="44.67429" lon="5.17584">
        <ele>418</ele>
        <time>2022-11-17T10:28:39Z</time>
      </trkpt>
      <trkpt lat="44.67426" lon="5.17597">
        <ele>419</ele>
        <time>2022-11-17T10:28:39Z</time>
      </trkpt>
      <trkpt lat="44.67406" lon="5.17628">
        <ele>422</ele>
        <time>2022-11-17T10:28:39Z</time>
      </trkpt>
      <trkpt lat="44.67387" lon="5.17689">
        <ele>425</ele>
        <time>2022-11-17T10:28:39Z</time>
      </trkpt>
      <trkpt lat="44.6735" lon="5.17727">
        <ele>427</ele>
        <time>2022-11-17T10:28:39Z</time>
      </trkpt>
      <trkpt lat="44.67296" lon="5.17821">
        <ele>428</ele>
        <time>2022-11-17T10:28:39Z</time>
      </trkpt>
      <trkpt lat="44.6727" lon="5.17836">
        <ele>430</ele>
        <time>2022-11-17T10:28:39Z</time>
      </trkpt>
      <trkpt lat="44.67256" lon="5.17853">
        <ele>431</ele>
        <time>2022-11-17T10:28:39Z</time>
      </trkpt>
      <trkpt lat="44.67228" lon="5.17909">
        <ele>432</ele>
        <time>2022-11-17T10:28:39Z</time>
      </trkpt>
      <trkpt lat="44.67214" lon="5.17924">
        <ele>432</ele>
        <time>2022-11-17T10:28:39Z</time>
      </trkpt>
      <trkpt lat="44.67196" lon="5.17928">
        <ele>433</ele>
        <time>2022-11-17T10:28:39Z</time>
      </trkpt>
      <trkpt lat="44.67174" lon="5.17922">
        <ele>434</ele>
        <time>2022-11-17T10:28:39Z</time>
      </trkpt>
      <trkpt lat="44.67176" lon="5.17935">
        <ele>435</ele>
        <time>2022-11-17T10:28:39Z</time>
      </trkpt>
      <trkpt lat="44.672" lon="5.17959">
        <ele>435</ele>
        <time>2022-11-17T10:28:39Z</time>
      </trkpt>
      <trkpt lat="44.67203" lon="5.17972">
        <ele>434</ele>
        <time>2022-11-17T10:28:39Z</time>
      </trkpt>
      <trkpt lat="44.67198" lon="5.17984">
        <ele>434</ele>
        <time>2022-11-17T10:28:39Z</time>
      </trkpt>
      <trkpt lat="44.67168" lon="5.18024">
        <ele>434</ele>
        <time>2022-11-17T10:28:39Z</time>
      </trkpt>
      <trkpt lat="44.67166" lon="5.18038">
        <ele>434</ele>
        <time>2022-11-17T10:28:39Z</time>
      </trkpt>
      <trkpt lat="44.67168" lon="5.18049">
        <ele>434</ele>
        <time>2022-11-17T10:28:39Z</time>
      </trkpt>
      <trkpt lat="44.67172" lon="5.1806">
        <ele>433</ele>
        <time>2022-11-17T10:28:39Z</time>
      </trkpt>
      <trkpt lat="44.67178" lon="5.18121">
        <ele>433</ele>
        <time>2022-11-17T10:28:39Z</time>
      </trkpt>
      <trkpt lat="44.67178" lon="5.18132">
        <ele>434</ele>
        <time>2022-11-17T10:28:39Z</time>
      </trkpt>
      <trkpt lat="44.67168" lon="5.18141">
        <ele>434</ele>
        <time>2022-11-17T10:28:39Z</time>
      </trkpt>
      <trkpt lat="44.67164" lon="5.18151">
        <ele>434</ele>
        <time>2022-11-17T10:28:39Z</time>
      </trkpt>
      <trkpt lat="44.67169" lon="5.18162">
        <ele>435</ele>
        <time>2022-11-17T10:28:39Z</time>
      </trkpt>
      <trkpt lat="44.67187" lon="5.18173">
        <ele>435</ele>
        <time>2022-11-17T10:28:39Z</time>
      </trkpt>
      <trkpt lat="44.67208" lon="5.18171">
        <ele>436</ele>
        <time>2022-11-17T10:28:39Z</time>
      </trkpt>
      <trkpt lat="44.67242" lon="5.18155">
        <ele>436</ele>
        <time>2022-11-17T10:28:39Z</time>
      </trkpt>
      <trkpt lat="44.67254" lon="5.18156">
        <ele>437</ele>
        <time>2022-11-17T10:28:39Z</time>
      </trkpt>
      <trkpt lat="44.67337" lon="5.18209">
        <ele>442</ele>
        <time>2022-11-17T10:28:39Z</time>
      </trkpt>
      <trkpt lat="44.67357" lon="5.18213">
        <ele>445</ele>
        <time>2022-11-17T10:28:39Z</time>
      </trkpt>
      <trkpt lat="44.67365" lon="5.18211">
        <ele>447</ele>
        <time>2022-11-17T10:28:39Z</time>
      </trkpt>
      <trkpt lat="44.67406" lon="5.18186">
        <ele>448</ele>
        <time>2022-11-17T10:28:39Z</time>
      </trkpt>
      <trkpt lat="44.67424" lon="5.18185">
        <ele>449</ele>
        <time>2022-11-17T10:28:39Z</time>
      </trkpt>
      <trkpt lat="44.67431" lon="5.18191">
        <ele>449</ele>
        <time>2022-11-17T10:28:39Z</time>
      </trkpt>
      <trkpt lat="44.67428" lon="5.18202">
        <ele>450</ele>
        <time>2022-11-17T10:28:39Z</time>
      </trkpt>
      <trkpt lat="44.67297" lon="5.18317">
        <ele>460</ele>
        <time>2022-11-17T10:28:39Z</time>
      </trkpt>
      <trkpt lat="44.67268" lon="5.18375">
        <ele>470</ele>
        <time>2022-11-17T10:28:39Z</time>
      </trkpt>
      <trkpt lat="44.67265" lon="5.18393">
        <ele>476</ele>
        <time>2022-11-17T10:28:39Z</time>
      </trkpt>
      <trkpt lat="44.67263" lon="5.18573">
        <ele>510</ele>
        <time>2022-11-17T10:28:39Z</time>
      </trkpt>
      <trkpt lat="44.67274" lon="5.1862">
        <ele>511</ele>
        <time>2022-11-17T10:28:39Z</time>
      </trkpt>
      <trkpt lat="44.67274" lon="5.18636">
        <ele>511</ele>
        <time>2022-11-17T10:28:39Z</time>
      </trkpt>
      <trkpt lat="44.6729" lon="5.18707">
        <ele>510</ele>
        <time>2022-11-17T10:28:39Z</time>
      </trkpt>
      <trkpt lat="44.67295" lon="5.18715">
        <ele>510</ele>
        <time>2022-11-17T10:28:39Z</time>
      </trkpt>
      <trkpt lat="44.67301" lon="5.18721">
        <ele>509</ele>
        <time>2022-11-17T10:28:39Z</time>
      </trkpt>
      <trkpt lat="44.6747" lon="5.18773">
        <ele>503</ele>
        <time>2022-11-17T10:28:39Z</time>
      </trkpt>
      <trkpt lat="44.67514" lon="5.18753">
        <ele>499</ele>
        <time>2022-11-17T10:28:39Z</time>
      </trkpt>
      <trkpt lat="44.67722" lon="5.18748">
        <ele>486</ele>
        <time>2022-11-17T10:28:39Z</time>
      </trkpt>
      <trkpt lat="44.67742" lon="5.18755">
        <ele>479</ele>
        <time>2022-11-17T10:28:39Z</time>
      </trkpt>
      <trkpt lat="44.6777" lon="5.18778">
        <ele>474</ele>
        <time>2022-11-17T10:28:39Z</time>
      </trkpt>
      <trkpt lat="44.67802" lon="5.18779">
        <ele>470</ele>
        <time>2022-11-17T10:28:39Z</time>
      </trkpt>
      <trkpt lat="44.67848" lon="5.18763">
        <ele>469</ele>
        <time>2022-11-17T10:28:39Z</time>
      </trkpt>
      <trkpt lat="44.6786" lon="5.18768">
        <ele>467</ele>
        <time>2022-11-17T10:28:39Z</time>
      </trkpt>
      <trkpt lat="44.67877" lon="5.1879">
        <ele>466</ele>
        <time>2022-11-17T10:28:39Z</time>
      </trkpt>
      <trkpt lat="44.67884" lon="5.18792">
        <ele>466</ele>
        <time>2022-11-17T10:28:39Z</time>
      </trkpt>
      <trkpt lat="44.67928" lon="5.18837">
        <ele>464</ele>
        <time>2022-11-17T10:28:39Z</time>
      </trkpt>
      <trkpt lat="44.6798" lon="5.18868">
        <ele>462</ele>
        <time>2022-11-17T10:28:39Z</time>
      </trkpt>
      <trkpt lat="44.67998" lon="5.18871">
        <ele>461</ele>
        <time>2022-11-17T10:28:39Z</time>
      </trkpt>
      <trkpt lat="44.68009" lon="5.18867">
        <ele>460</ele>
        <time>2022-11-17T10:28:39Z</time>
      </trkpt>
      <trkpt lat="44.68065" lon="5.18869">
        <ele>458</ele>
        <time>2022-11-17T10:28:39Z</time>
      </trkpt>
      <trkpt lat="44.68151" lon="5.18911">
        <ele>457</ele>
        <time>2022-11-17T10:28:39Z</time>
      </trkpt>
      <trkpt lat="44.68159" lon="5.18904">
        <ele>456</ele>
        <time>2022-11-17T10:28:39Z</time>
      </trkpt>
      <trkpt lat="44.68163" lon="5.18891">
        <ele>455</ele>
        <time>2022-11-17T10:28:39Z</time>
      </trkpt>
      <trkpt lat="44.68172" lon="5.18882">
        <ele>453</ele>
        <time>2022-11-17T10:28:39Z</time>
      </trkpt>
      <trkpt lat="44.68185" lon="5.1888">
        <ele>452</ele>
        <time>2022-11-17T10:28:39Z</time>
      </trkpt>
      <trkpt lat="44.68295" lon="5.18899">
        <ele>451</ele>
        <time>2022-11-17T10:28:39Z</time>
      </trkpt>
      <trkpt lat="44.6831" lon="5.18912">
        <ele>450</ele>
        <time>2022-11-17T10:28:39Z</time>
      </trkpt>
      <trkpt lat="44.68329" lon="5.18944">
        <ele>449</ele>
        <time>2022-11-17T10:28:39Z</time>
      </trkpt>
      <trkpt lat="44.68338" lon="5.18952">
        <ele>448</ele>
        <time>2022-11-17T10:28:39Z</time>
      </trkpt>
      <trkpt lat="44.68382" lon="5.18971">
        <ele>446</ele>
        <time>2022-11-17T10:28:39Z</time>
      </trkpt>
      <trkpt lat="44.6839" lon="5.18984">
        <ele>444</ele>
        <time>2022-11-17T10:28:39Z</time>
      </trkpt>
      <trkpt lat="44.68394" lon="5.19039">
        <ele>442</ele>
        <time>2022-11-17T10:28:39Z</time>
      </trkpt>
      <trkpt lat="44.68406" lon="5.19067">
        <ele>439</ele>
        <time>2022-11-17T10:28:39Z</time>
      </trkpt>
      <trkpt lat="44.68451" lon="5.1912">
        <ele>436</ele>
        <time>2022-11-17T10:28:39Z</time>
      </trkpt>
      <trkpt lat="44.68461" lon="5.19126">
        <ele>433</ele>
        <time>2022-11-17T10:28:39Z</time>
      </trkpt>
      <trkpt lat="44.6848" lon="5.19122">
        <ele>430</ele>
        <time>2022-11-17T10:28:39Z</time>
      </trkpt>
      <trkpt lat="44.685" lon="5.19104">
        <ele>427</ele>
        <time>2022-11-17T10:28:39Z</time>
      </trkpt>
      <trkpt lat="44.68523" lon="5.19095">
        <ele>423</ele>
        <time>2022-11-17T10:28:39Z</time>
      </trkpt>
      <trkpt lat="44.68563" lon="5.19086">
        <ele>419</ele>
        <time>2022-11-17T10:28:39Z</time>
      </trkpt>
      <trkpt lat="44.68574" lon="5.19088">
        <ele>416</ele>
        <time>2022-11-17T10:28:39Z</time>
      </trkpt>
      <trkpt lat="44.68629" lon="5.19203">
        <ele>411</ele>
        <time>2022-11-17T10:28:39Z</time>
      </trkpt>
      <trkpt lat="44.687" lon="5.19252">
        <ele>403</ele>
        <time>2022-11-17T10:28:39Z</time>
      </trkpt>
      <trkpt lat="44.68725" lon="5.19248">
        <ele>397</ele>
        <time>2022-11-17T10:28:39Z</time>
      </trkpt>
      <trkpt lat="44.68736" lon="5.19251">
        <ele>393</ele>
        <time>2022-11-17T10:28:39Z</time>
      </trkpt>
      <trkpt lat="44.68806" lon="5.19317">
        <ele>386</ele>
        <time>2022-11-17T10:28:39Z</time>
      </trkpt>
      <trkpt lat="44.68883" lon="5.19358">
        <ele>378</ele>
        <time>2022-11-17T10:28:39Z</time>
      </trkpt>
      <trkpt lat="44.68921" lon="5.19397">
        <ele>371</ele>
        <time>2022-11-17T10:28:39Z</time>
      </trkpt>
      <trkpt lat="44.68918" lon="5.19406">
        <ele>367</ele>
        <time>2022-11-17T10:28:39Z</time>
      </trkpt>
      <trkpt lat="44.68939" lon="5.19431">
        <ele>363</ele>
        <time>2022-11-17T10:28:39Z</time>
      </trkpt>
      <trkpt lat="44.68953" lon="5.19466">
        <ele>345</ele>
        <time>2022-11-17T10:28:39Z</time>
      </trkpt>
      <trkpt lat="44.68984" lon="5.19501">
        <ele>343</ele>
        <time>2022-11-17T10:28:39Z</time>
      </trkpt>
      <trkpt lat="44.69001" lon="5.19507">
        <ele>342</ele>
        <time>2022-11-17T10:28:39Z</time>
      </trkpt>
      <trkpt lat="44.69003" lon="5.1953">
        <ele>340</ele>
        <time>2022-11-17T10:28:39Z</time>
      </trkpt>
      <trkpt lat="44.69011" lon="5.19545">
        <ele>339</ele>
        <time>2022-11-17T10:28:39Z</time>
      </trkpt>
      <trkpt lat="44.69033" lon="5.19564">
        <ele>337</ele>
        <time>2022-11-17T10:28:39Z</time>
      </trkpt>
      <trkpt lat="44.69054" lon="5.19565">
        <ele>334</ele>
        <time>2022-11-17T10:28:39Z</time>
      </trkpt>
      <trkpt lat="44.69061" lon="5.19578">
        <ele>332</ele>
        <time>2022-11-17T10:28:39Z</time>
      </trkpt>
      <trkpt lat="44.69146" lon="5.19639">
        <ele>328</ele>
        <time>2022-11-17T10:28:39Z</time>
      </trkpt>
      <trkpt lat="44.69153" lon="5.1965">
        <ele>324</ele>
        <time>2022-11-17T10:28:39Z</time>
      </trkpt>
      <trkpt lat="44.69161" lon="5.19678">
        <ele>322</ele>
        <time>2022-11-17T10:28:39Z</time>
      </trkpt>
      <trkpt lat="44.69181" lon="5.19639">
        <ele>319</ele>
        <time>2022-11-17T10:28:39Z</time>
      </trkpt>
      <trkpt lat="44.69212" lon="5.19625">
        <ele>315</ele>
        <time>2022-11-17T10:28:39Z</time>
      </trkpt>
      <trkpt lat="44.69411" lon="5.19624">
        <ele>306</ele>
        <time>2022-11-17T10:28:39Z</time>
      </trkpt>
      <trkpt lat="44.6945" lon="5.19702">
        <ele>298</ele>
        <time>2022-11-17T10:28:39Z</time>
      </trkpt>
      <trkpt lat="44.69478" lon="5.19856">
        <ele>292</ele>
        <time>2022-11-17T10:28:39Z</time>
      </trkpt>
      <trkpt lat="44.69479" lon="5.199">
        <ele>288</ele>
        <time>2022-11-17T10:28:39Z</time>
      </trkpt>
      <trkpt lat="44.69459" lon="5.19902">
        <ele>287</ele>
        <time>2022-11-17T10:28:39Z</time>
      </trkpt>
      <trkpt lat="44.69467" lon="5.1991">
        <ele>285</ele>
        <time>2022-11-17T10:28:39Z</time>
      </trkpt>
      <trkpt lat="44.69473" lon="5.19924">
        <ele>284</ele>
        <time>2022-11-17T10:28:39Z</time>
      </trkpt>
      <trkpt lat="44.69475" lon="5.19957">
        <ele>283</ele>
        <time>2022-11-17T10:28:39Z</time>
      </trkpt>
      <trkpt lat="44.69477" lon="5.19969">
        <ele>282</ele>
        <time>2022-11-17T10:28:39Z</time>
      </trkpt>
      <trkpt lat="44.6949" lon="5.19994">
        <ele>281</ele>
        <time>2022-11-17T10:28:39Z</time>
      </trkpt>
      <trkpt lat="44.695" lon="5.20007">
        <ele>280</ele>
        <time>2022-11-17T10:28:39Z</time>
      </trkpt>
      <trkpt lat="44.69512" lon="5.19897">
        <ele>277</ele>
        <time>2022-11-17T10:28:39Z</time>
      </trkpt>
      <trkpt lat="44.6951" lon="5.19738">
        <ele>273</ele>
        <time>2022-11-17T10:28:39Z</time>
      </trkpt>
      <trkpt lat="44.69519" lon="5.19715">
        <ele>270</ele>
        <time>2022-11-17T10:28:39Z</time>
      </trkpt>
      <trkpt lat="44.69649" lon="5.1971">
        <ele>268</ele>
        <time>2022-11-17T10:28:39Z</time>
      </trkpt>
      <trkpt lat="44.69654" lon="5.19726">
        <ele>267</ele>
        <time>2022-11-17T10:28:39Z</time>
      </trkpt>
      <trkpt lat="44.69663" lon="5.19726">
        <ele>267</ele>
        <time>2022-11-17T10:28:39Z</time>
      </trkpt>
      <trkpt lat="44.69676" lon="5.19864">
        <ele>267</ele>
        <time>2022-11-17T10:28:39Z</time>
      </trkpt>
      <trkpt lat="44.69675" lon="5.19878">
        <ele>268</ele>
        <time>2022-11-17T10:28:39Z</time>
      </trkpt>
      <trkpt lat="44.69684" lon="5.19882">
        <ele>268</ele>
        <time>2022-11-17T10:28:39Z</time>
      </trkpt>
      <trkpt lat="44.69692" lon="5.19891">
        <ele>268</ele>
        <time>2022-11-17T10:28:39Z</time>
      </trkpt>
      <trkpt lat="44.69688" lon="5.19968">
        <ele>268</ele>
        <time>2022-11-17T10:28:39Z</time>
      </trkpt>
    </trkseg>
  </trk>
</gpx>